Wetterdaten: Mittwoch, 08.01.2020
Datum Zeit Temp. Aussen Temp. o. S. Temp +5cm Feuchte Auss Luftdruck Regen Sonnenschein Regendauer Solar Windben Empfang
08.01.2020 00:00 6,1 C 5,6 C 5,0 C 89 % 1025,7 hPa 0,0 l/m 0 min 0 min 0 W/m 0,0 km/h (0 Bft) 97,87 %
08.01.2020 00:02 6,1 C 5,6 C 5,0 C 89 % 1025,7 hPa 0,0 l/m 0 min 0 min 0 W/m 0,0 km/h (0 Bft) 97,73 %
08.01.2020 00:04 6,2 C 5,6 C 5,0 C 89 % 1025,7 hPa 0,0 l/m 0 min 0 min 0 W/m 3,2 km/h (1 Bft) 97,83 %
08.01.2020 00:08 6,2 C 5,6 C 5,0 C 89 % 1025,8 hPa 0,0 l/m 0 min 0 min 0 W/m 3,2 km/h (1 Bft) 95,74 %
08.01.2020 00:10 6,2 C 5,6 C 5,0 C 89 % 1025,7 hPa 0,0 l/m 0 min 0 min 0 W/m 0,0 km/h (0 Bft) 97,87 %
08.01.2020 00:12 6,2 C 5,6 C 5,0 C 89 % 1025,7 hPa 0,0 l/m 0 min 0 min 0 W/m 6,4 km/h (2 Bft) 100,00 %
08.01.2020 00:14 6,2 C 5,6 C 5,0 C 89 % 1025,7 hPa 0,0 l/m 0 min 0 min 0 W/m 0,0 km/h (0 Bft) 97,87 %
08.01.2020 00:16 6,2 C 5,6 C 5,0 C 89 % 1025,7 hPa 0,0 l/m 0 min 0 min 0 W/m 0,0 km/h (0 Bft) 97,83 %
08.01.2020 00:18 6,2 C 5,6 C 5,0 C 89 % 1025,6 hPa 0,0 l/m 0 min 0 min 0 W/m 0,0 km/h (0 Bft) 91,49 %
08.01.2020 00:20 6,2 C 5,6 C 5,0 C 89 % 1025,5 hPa 0,0 l/m 0 min 0 min 0 W/m 0,0 km/h (0 Bft) 95,74 %
08.01.2020 00:22 6,2 C 5,6 C 5,0 C 89 % 1025,6 hPa 0,0 l/m 0 min 0 min 0 W/m 3,2 km/h (1 Bft) 95,74 %
08.01.2020 00:24 6,2 C 5,6 C 5,0 C 89 % 1025,6 hPa 0,0 l/m 0 min 0 min 0 W/m 3,2 km/h (1 Bft) 95,74 %
08.01.2020 00:26 6,2 C 5,6 C 5,0 C 89 % 1025,6 hPa 0,0 l/m 0 min 0 min 0 W/m 0,0 km/h (0 Bft) 91,49 %
08.01.2020 00:28 6,2 C 5,6 C 5,0 C 89 % 1025,7 hPa 0,0 l/m 0 min 0 min 0 W/m 0,0 km/h (0 Bft) 89,13 %
08.01.2020 00:30 6,2 C 5,6 C 5,0 C 89 % 1025,6 hPa 0,0 l/m 0 min 0 min 0 W/m 0,0 km/h (0 Bft) 93,62 %
08.01.2020 00:32 6,2 C 5,6 C 5,0 C 89 % 1025,6 hPa 0,0 l/m 0 min 0 min 0 W/m 0,0 km/h (0 Bft) 93,62 %
08.01.2020 00:34 6,2 C 5,6 C 5,0 C 89 % 1025,6 hPa 0,0 l/m 0 min 0 min 0 W/m 0,0 km/h (0 Bft) 91,49 %
08.01.2020 00:36 6,2 C 5,6 C 5,0 C 89 % 1025,5 hPa 0,0 l/m 0 min 0 min 0 W/m 0,0 km/h (0 Bft) 91,49 %
08.01.2020 00:38 6,2 C 5,6 C 5,0 C 89 % 1025,6 hPa 0,0 l/m 0 min 0 min 0 W/m 0,0 km/h (0 Bft) 93,62 %
08.01.2020 00:40 6,2 C 5,6 C 5,0 C 89 % 1025,4 hPa 0,0 l/m 0 min 0 min 0 W/m 0,0 km/h (0 Bft) 93,48 %
08.01.2020 00:42 6,2 C 5,6 C 5,0 C 89 % 1025,3 hPa 0,0 l/m 0 min 0 min 0 W/m 0,0 km/h (0 Bft) 93,62 %
08.01.2020 00:44 6,2 C 5,6 C 5,0 C 89 % 1025,3 hPa 0,0 l/m 0 min 0 min 0 W/m 0,0 km/h (0 Bft) 93,62 %
08.01.2020 00:46 6,2 C 5,6 C 5,0 C 89 % 1025,2 hPa 0,0 l/m 0 min 0 min 0 W/m 0,0 km/h (0 Bft) 93,62 %
08.01.2020 00:48 6,2 C 5,6 C 5,0 C 89 % 1025,2 hPa 0,0 l/m 0 min 0 min 0 W/m 0,0 km/h (0 Bft) 93,62 %
08.01.2020 00:50 6,2 C 5,6 C 5,0 C 89 % 1025,3 hPa 0,0 l/m 0 min 0 min 0 W/m 0,0 km/h (0 Bft) 95,65 %
08.01.2020 00:52 6,3 C 5,6 C 5,0 C 89 % 1025,3 hPa 0,0 l/m 0 min 0 min 0 W/m 0,0 km/h (0 Bft) 89,36 %
08.01.2020 00:54 6,3 C 5,6 C 5,0 C 89 % 1025,2 hPa 0,0 l/m 0 min 0 min 0 W/m 0,0 km/h (0 Bft) 95,74 %
08.01.2020 00:56 6,3 C 5,6 C 5,0 C 89 % 1025,2 hPa 0,0 l/m 0 min 0 min 0 W/m 0,0 km/h (0 Bft) 95,74 %
08.01.2020 00:58 6,3 C 5,6 C 5,0 C 89 % 1025,1 hPa 0,0 l/m 0 min 0 min 0 W/m 0,0 km/h (0 Bft) 95,74 %
08.01.2020 01:00 6,3 C 5,6 C 5,0 C 89 % 1025,1 hPa 0,0 l/m 0 min 0 min 0 W/m 0,0 km/h (0 Bft) 95,74 %
08.01.2020 01:02 6,3 C 5,6 C 5,0 C 89 % 1025,1 hPa 0,0 l/m 0 min 0 min 0 W/m 0,0 km/h (0 Bft) 93,48 %
08.01.2020 01:04 6,3 C 5,6 C 5,0 C 89 % 1025,1 hPa 0,0 l/m 0 min 0 min 0 W/m 3,2 km/h (1 Bft) 97,87 %
08.01.2020 01:06 6,3 C 5,6 C 5,0 C 89 % 1025,0 hPa 0,0 l/m 0 min 0 min 0 W/m 0,0 km/h (0 Bft) 97,87 %
08.01.2020 01:08 6,3 C 6,1 C 5,0 C 89 % 1025,0 hPa 0,0 l/m 0 min 0 min 0 W/m 0,0 km/h (0 Bft) 97,87 %
08.01.2020 01:10 6,3 C 6,1 C 5,0 C 89 % 1025,0 hPa 0,0 l/m 0 min 0 min 0 W/m 3,2 km/h (1 Bft) 95,74 %
08.01.2020 01:12 6,3 C 6,1 C 5,0 C 89 % 1024,8 hPa 0,0 l/m 0 min 0 min 0 W/m 0,0 km/h (0 Bft) 100,00 %
08.01.2020 01:14 6,3 C 6,1 C 5,0 C 89 % 1024,9 hPa 0,0 l/m 0 min 0 min 0 W/m 6,4 km/h (2 Bft) 100,00 %
08.01.2020 01:16 6,3 C 6,1 C 5,0 C 89 % 1024,8 hPa 0,0 l/m 0 min 0 min 0 W/m 3,2 km/h (1 Bft) 100,00 %
08.01.2020 01:18 6,4 C 6,1 C 5,0 C 89 % 1024,8 hPa 0,0 l/m 0 min 0 min 0 W/m 0,0 km/h (0 Bft) 100,00 %
08.01.2020 01:20 6,4 C 6,1 C 5,0 C 89 % 1024,7 hPa 0,0 l/m 0 min 0 min 0 W/m 0,0 km/h (0 Bft) 100,00 %
08.01.2020 01:22 6,4 C 6,1 C 5,6 C 89 % 1024,6 hPa 0,0 l/m 0 min 0 min 0 W/m 6,4 km/h (2 Bft) 100,00 %
08.01.2020 01:24 6,4 C 6,1 C 5,6 C 89 % 1024,6 hPa 0,0 l/m 0 min 0 min 0 W/m 0,0 km/h (0 Bft) 100,00 %
08.01.2020 01:26 6,4 C 6,1 C 5,6 C 89 % 1024,6 hPa 0,0 l/m 0 min 0 min 0 W/m 3,2 km/h (1 Bft) 100,00 %
08.01.2020 01:28 6,4 C 6,1 C 5,6 C 89 % 1024,6 hPa 0,0 l/m 0 min 0 min 0 W/m 6,4 km/h (2 Bft) 100,00 %
08.01.2020 01:30 6,4 C 6,1 C 5,6 C 89 % 1024,6 hPa 0,0 l/m 0 min 0 min 0 W/m 16,1 km/h (3 Bft) 100,00 %
08.01.2020 01:32 6,5 C 6,1 C 5,6 C 89 % 1024,6 hPa 0,0 l/m 0 min 0 min 0 W/m 0,0 km/h (0 Bft) 100,00 %
08.01.2020 01:34 6,5 C 6,1 C 5,6 C 89 % 1024,5 hPa 0,0 l/m 0 min 0 min 0 W/m 0,0 km/h (0 Bft) 100,00 %
08.01.2020 01:36 6,5 C 6,1 C 5,6 C 88 % 1024,5 hPa 0,0 l/m 0 min 0 min 0 W/m 0,0 km/h (0 Bft) 100,00 %
08.01.2020 01:38 6,5 C 6,1 C 5,6 C 88 % 1024,3 hPa 0,0 l/m 0 min 0 min 0 W/m 0,0 km/h (0 Bft) 100,00 %
08.01.2020 01:40 6,5 C 6,1 C 5,6 C 88 % 1024,3 hPa 0,0 l/m 0 min 0 min 0 W/m 3,2 km/h (1 Bft) 100,00 %
08.01.2020 01:42 6,5 C 6,1 C 5,6 C 88 % 1024,3 hPa 0,0 l/m 0 min 0 min 0 W/m 19,3 km/h (3 Bft) 100,00 %
08.01.2020 01:44 6,6 C 6,1 C 5,6 C 88 % 1024,3 hPa 0,0 l/m 0 min 0 min 0 W/m 3,2 km/h (1 Bft) 100,00 %
08.01.2020 01:46 6,6 C 6,1 C 5,6 C 88 % 1024,4 hPa 0,0 l/m 0 min 0 min 0 W/m 0,0 km/h (0 Bft) 100,00 %
08.01.2020 01:48 6,6 C 6,1 C 5,6 C 88 % 1024,3 hPa 0,0 l/m 0 min 0 min 0 W/m 6,4 km/h (2 Bft) 100,00 %
08.01.2020 01:50 6,6 C 6,1 C 5,6 C 88 % 1024,3 hPa 0,0 l/m 0 min 0 min 0 W/m 0,0 km/h (0 Bft) 100,00 %
08.01.2020 01:52 6,6 C 6,1 C 5,6 C 88 % 1024,3 hPa 0,0 l/m 0 min 0 min 0 W/m 3,2 km/h (1 Bft) 100,00 %
08.01.2020 01:54 6,6 C 6,1 C 5,6 C 88 % 1024,3 hPa 0,0 l/m 0 min 0 min 0 W/m 3,2 km/h (1 Bft) 100,00 %
08.01.2020 01:56 6,6 C 6,1 C 5,6 C 88 % 1024,2 hPa 0,0 l/m 0 min 0 min 0 W/m 0,0 km/h (0 Bft) 100,00 %
08.01.2020 01:58 6,6 C 6,1 C 5,6 C 88 % 1024,2 hPa 0,0 l/m 0 min 0 min 0 W/m 0,0 km/h (0 Bft) 97,87 %
08.01.2020 02:00 6,7 C 6,1 C 5,6 C 88 % 1024,1 hPa 0,0 l/m 0 min 0 min 0 W/m 12,9 km/h (3 Bft) 100,00 %
08.01.2020 02:02 6,7 C 6,1 C 5,6 C 87 % 1024,2 hPa 0,0 l/m 0 min 0 min 0 W/m 0,0 km/h (0 Bft) 100,00 %
08.01.2020 02:04 6,7 C 6,1 C 5,6 C 87 % 1024,2 hPa 0,0 l/m 0 min 0 min 0 W/m 0,0 km/h (0 Bft) 100,00 %
08.01.2020 02:06 6,7 C 6,1 C 5,6 C 87 % 1024,2 hPa 0,0 l/m 0 min 0 min 0 W/m 0,0 km/h (0 Bft) 100,00 %
08.01.2020 02:08 6,7 C 6,1 C 5,6 C 87 % 1024,1 hPa 0,0 l/m 0 min 0 min 0 W/m 0,0 km/h (0 Bft) 100,00 %
08.01.2020 02:10 6,7 C 6,1 C 5,6 C 87 % 1024,1 hPa 0,0 l/m 0 min 0 min 0 W/m 0,0 km/h (0 Bft) 97,87 %
08.01.2020 02:12 6,7 C 6,1 C 5,6 C 87 % 1024,2 hPa 0,0 l/m 0 min 0 min 0 W/m 0,0 km/h (0 Bft) 100,00 %
08.01.2020 02:14 6,7 C 6,1 C 5,6 C 87 % 1024,2 hPa 0,0 l/m 0 min 0 min 0 W/m 0,0 km/h (0 Bft) 100,00 %
08.01.2020 02:16 6,7 C 6,1 C 5,6 C 87 % 1024,1 hPa 0,0 l/m 0 min 0 min 0 W/m 0,0 km/h (0 Bft) 97,87 %
08.01.2020 02:18 6,8 C 6,1 C 5,6 C 87 % 1024,0 hPa 0,0 l/m 0 min 0 min 0 W/m 0,0 km/h (0 Bft) 100,00 %
08.01.2020 02:20 6,8 C 6,1 C 5,6 C 87 % 1024,0 hPa 0,0 l/m 0 min 0 min 0 W/m 3,2 km/h (1 Bft) 100,00 %
08.01.2020 02:22 6,8 C 6,1 C 5,6 C 87 % 1023,8 hPa 0,0 l/m 0 min 0 min 0 W/m 3,2 km/h (1 Bft) 97,87 %
08.01.2020 02:24 6,8 C 6,1 C 5,6 C 87 % 1023,6 hPa 0,0 l/m 0 min 0 min 0 W/m 29,0 km/h (5 Bft) 100,00 %
08.01.2020 02:26 6,8 C 6,1 C 5,6 C 87 % 1023,6 hPa 0,0 l/m 0 min 0 min 0 W/m 25,7 km/h (4 Bft) 100,00 %
08.01.2020 02:28 6,8 C 6,1 C 5,6 C 87 % 1023,5 hPa 0,0 l/m 0 min 0 min 0 W/m 19,3 km/h (3 Bft) 97,87 %
08.01.2020 02:30 6,8 C 6,1 C 5,6 C 87 % 1023,5 hPa 0,0 l/m 0 min 0 min 0 W/m 19,3 km/h (3 Bft) 100,00 %
08.01.2020 02:32 6,8 C 6,1 C 5,6 C 87 % 1023,4 hPa 0,0 l/m 0 min 0 min 0 W/m 22,5 km/h (4 Bft) 100,00 %
08.01.2020 02:34 6,8 C 6,1 C 5,6 C 87 % 1023,4 hPa 0,0 l/m 0 min 0 min 0 W/m 22,5 km/h (4 Bft) 100,00 %
08.01.2020 02:36 6,8 C 6,1 C 5,6 C 87 % 1023,4 hPa 0,0 l/m 0 min 0 min 0 W/m 35,4 km/h (5 Bft) 100,00 %
08.01.2020 02:38 6,8 C 6,1 C 5,6 C 87 % 1023,5 hPa 0,0 l/m 0 min 0 min 0 W/m 22,5 km/h (4 Bft) 100,00 %
08.01.2020 02:40 6,8 C 6,1 C 5,6 C 87 % 1023,5 hPa 0,0 l/m 0 min 0 min 0 W/m 3,2 km/h (1 Bft) 100,00 %
08.01.2020 02:42 6,9 C 6,1 C 5,6 C 87 % 1023,5 hPa 0,0 l/m 0 min 0 min 0 W/m 22,5 km/h (4 Bft) 97,87 %
08.01.2020 02:44 6,9 C 6,1 C 5,6 C 87 % 1023,5 hPa 0,0 l/m 0 min 0 min 0 W/m 16,1 km/h (3 Bft) 100,00 %
08.01.2020 02:46 6,9 C 6,7 C 5,6 C 87 % 1023,5 hPa 0,0 l/m 0 min 0 min 0 W/m 6,4 km/h (2 Bft) 100,00 %
08.01.2020 02:48 6,9 C 6,7 C 5,6 C 87 % 1023,5 hPa 0,0 l/m 0 min 0 min 0 W/m 3,2 km/h (1 Bft) 100,00 %
08.01.2020 02:50 6,9 C 6,7 C 5,6 C 87 % 1023,4 hPa 0,0 l/m 0 min 0 min 0 W/m 25,7 km/h (4 Bft) 100,00 %
08.01.2020 02:52 6,9 C 6,7 C 5,6 C 87 % 1023,4 hPa 0,0 l/m 0 min 0 min 0 W/m 25,7 km/h (4 Bft) 100,00 %
08.01.2020 02:54 6,9 C 6,7 C 5,6 C 87 % 1023,4 hPa 0,0 l/m 0 min 0 min 0 W/m 0,0 km/h (0 Bft) 95,74 %
08.01.2020 02:56 6,9 C 6,7 C 5,6 C 87 % 1023,4 hPa 0,0 l/m 0 min 0 min 0 W/m 19,3 km/h (3 Bft) 95,74 %
08.01.2020 02:58 7,0 C 6,7 C 6,1 C 87 % 1023,5 hPa 0,0 l/m 0 min 0 min 0 W/m 22,5 km/h (4 Bft) 97,83 %
08.01.2020 03:00 7,0 C 6,7 C 6,1 C 87 % 1023,5 hPa 0,0 l/m 0 min 0 min 0 W/m 3,2 km/h (1 Bft) 97,87 %
08.01.2020 03:02 7,0 C 6,7 C 6,1 C 87 % 1023,4 hPa 0,0 l/m 0 min 0 min 0 W/m 0,0 km/h (0 Bft) 97,87 %
08.01.2020 03:04 7,0 C 6,7 C 6,1 C 87 % 1023,4 hPa 0,0 l/m 0 min 0 min 0 W/m 16,1 km/h (3 Bft) 95,74 %
08.01.2020 03:06 7,1 C 6,7 C 6,1 C 87 % 1023,4 hPa 0,0 l/m 0 min 0 min 0 W/m 0,0 km/h (0 Bft) 93,62 %
08.01.2020 03:08 7,1 C 6,7 C 6,1 C 87 % 1023,3 hPa 0,0 l/m 0 min 0 min 0 W/m 0,0 km/h (0 Bft) 97,87 %
08.01.2020 03:10 7,1 C 6,7 C 6,1 C 87 % 1023,4 hPa 0,0 l/m 0 min 0 min 0 W/m 12,9 km/h (3 Bft) 95,65 %
08.01.2020 03:12 7,1 C 6,7 C 6,1 C 87 % 1023,3 hPa 0,0 l/m 0 min 0 min 0 W/m 0,0 km/h (0 Bft) 93,62 %
08.01.2020 03:14 7,1 C 6,7 C 6,1 C 87 % 1023,2 hPa 0,0 l/m 0 min 0 min 0 W/m 0,0 km/h (0 Bft) 70,21 %
08.01.2020 03:16 7,1 C 6,7 C 6,1 C 87 % 1023,2 hPa 0,0 l/m 0 min 0 min 0 W/m 12,9 km/h (3 Bft) 80,43 %
08.01.2020 03:18 7,1 C 6,7 C 6,1 C 87 % 1023,2 hPa 0,0 l/m 0 min 0 min 0 W/m 19,3 km/h (3 Bft) 93,62 %
08.01.2020 03:20 7,1 C 6,7 C 6,1 C 87 % 1023,2 hPa 0,0 l/m 0 min 0 min 0 W/m 0,0 km/h (0 Bft) 93,48 %
08.01.2020 03:22 7,1 C 6,7 C 6,1 C 87 % 1023,3 hPa 0,0 l/m 0 min 0 min 0 W/m 3,2 km/h (1 Bft) 93,62 %
08.01.2020 03:24 7,1 C 6,7 C 6,1 C 87 % 1023,2 hPa 0,0 l/m 0 min 0 min 0 W/m 0,0 km/h (0 Bft) 93,62 %
08.01.2020 03:26 7,1 C 6,7 C 6,1 C 87 % 1023,3 hPa 0,0 l/m 0 min 0 min 0 W/m 0,0 km/h (0 Bft) 91,49 %
08.01.2020 03:28 7,1 C 6,7 C 6,1 C 87 % 1023,2 hPa 0,0 l/m 0 min 0 min 0 W/m 6,4 km/h (2 Bft) 91,49 %
08.01.2020 03:30 7,1 C 6,7 C 6,1 C 87 % 1023,3 hPa 0,0 l/m 0 min 0 min 0 W/m 0,0 km/h (0 Bft) 93,62 %
08.01.2020 03:32 7,1 C 6,7 C 6,1 C 87 % 1023,3 hPa 0,0 l/m 0 min 0 min 0 W/m 0,0 km/h (0 Bft) 91,49 %
08.01.2020 03:34 7,1 C 6,7 C 6,1 C 87 % 1023,3 hPa 0,0 l/m 0 min 0 min 0 W/m 6,4 km/h (2 Bft) 93,48 %
08.01.2020 03:36 7,1 C 6,7 C 6,1 C 87 % 1023,2 hPa 0,0 l/m 0 min 0 min 0 W/m 0,0 km/h (0 Bft) 95,74 %
08.01.2020 03:38 7,1 C 6,7 C 6,1 C 87 % 1023,3 hPa 0,0 l/m 0 min 0 min 0 W/m 0,0 km/h (0 Bft) 93,62 %
08.01.2020 03:40 7,1 C 6,7 C 6,1 C 87 % 1023,3 hPa 0,0 l/m 0 min 0 min 0 W/m 0,0 km/h (0 Bft) 95,74 %
08.01.2020 03:42 7,1 C 6,7 C 6,1 C 87 % 1023,2 hPa 0,0 l/m 0 min 0 min 0 W/m 16,1 km/h (3 Bft) 93,62 %
08.01.2020 03:44 7,1 C 6,7 C 6,1 C 87 % 1023,2 hPa 0,0 l/m 0 min 0 min 0 W/m 16,1 km/h (3 Bft) 93,48 %
08.01.2020 03:46 7,1 C 6,7 C 6,1 C 87 % 1023,3 hPa 0,0 l/m 0 min 0 min 0 W/m 0,0 km/h (0 Bft) 95,74 %
08.01.2020 03:48 7,2 C 6,7 C 6,1 C 87 % 1023,3 hPa 0,0 l/m 0 min 0 min 0 W/m 16,1 km/h (3 Bft) 95,74 %
08.01.2020 03:50 7,1 C 6,7 C 6,1 C 87 % 1023,3 hPa 0,0 l/m 0 min 0 min 0 W/m 16,1 km/h (3 Bft) 95,74 %
08.01.2020 03:52 7,2 C 6,7 C 6,1 C 87 % 1023,3 hPa 0,0 l/m 0 min 0 min 0 W/m 0,0 km/h (0 Bft) 95,74 %
08.01.2020 03:54 7,2 C 6,7 C 6,1 C 87 % 1023,4 hPa 0,0 l/m 0 min 0 min 0 W/m 0,0 km/h (0 Bft) 95,74 %
08.01.2020 03:56 7,2 C 6,7 C 6,1 C 87 % 1023,4 hPa 0,0 l/m 0 min 0 min 0 W/m 0,0 km/h (0 Bft) 95,65 %
08.01.2020 03:58 7,2 C 6,7 C 6,1 C 87 % 1023,5 hPa 0,0 l/m 0 min 0 min 0 W/m 0,0 km/h (0 Bft) 93,62 %
08.01.2020 04:00 7,2 C 6,7 C 6,1 C 87 % 1023,5 hPa 0,0 l/m 0 min 0 min 0 W/m 0,0 km/h (0 Bft) 95,74 %
08.01.2020 04:02 7,2 C 6,7 C 6,1 C 87 % 1023,5 hPa 0,0 l/m 0 min 0 min 0 W/m 0,0 km/h (0 Bft) 90,00 %
08.01.2020 04:04 7,2 C 6,7 C 6,1 C 87 % 1023,5 hPa 0,0 l/m 0 min 0 min 0 W/m 0,0 km/h (0 Bft) 95,74 %
08.01.2020 04:06 7,2 C 6,7 C 6,1 C 87 % 1023,4 hPa 0,0 l/m 0 min 0 min 0 W/m 0,0 km/h (0 Bft) 97,87 %
08.01.2020 04:08 7,2 C 6,7 C 6,1 C 87 % 1023,4 hPa 0,0 l/m 0 min 0 min 0 W/m 0,0 km/h (0 Bft) 100,00 %
08.01.2020 04:10 7,2 C 6,7 C 6,1 C 87 % 1023,4 hPa 0,0 l/m 0 min 0 min 0 W/m 0,0 km/h (0 Bft) 100,00 %
08.01.2020 04:12 7,2 C 6,7 C 6,1 C 87 % 1023,4 hPa 0,0 l/m 0 min 0 min 0 W/m 0,0 km/h (0 Bft) 100,00 %
08.01.2020 04:14 7,2 C 6,7 C 6,1 C 87 % 1023,3 hPa 0,0 l/m 0 min 0 min 0 W/m 22,5 km/h (4 Bft) 100,00 %
08.01.2020 04:16 7,2 C 6,7 C 6,1 C 87 % 1023,2 hPa 0,0 l/m 0 min 0 min 0 W/m 0,0 km/h (0 Bft) 97,87 %
08.01.2020 04:18 7,2 C 6,7 C 6,1 C 87 % 1023,3 hPa 0,0 l/m 0 min 0 min 0 W/m 0,0 km/h (0 Bft) 100,00 %
08.01.2020 04:20 7,2 C 6,7 C 6,1 C 87 % 1023,3 hPa 0,0 l/m 0 min 0 min 0 W/m 3,2 km/h (1 Bft) 100,00 %
08.01.2020 04:22 7,2 C 6,7 C 6,1 C 88 % 1023,3 hPa 0,0 l/m 0 min 0 min 0 W/m 19,3 km/h (3 Bft) 100,00 %
08.01.2020 04:24 7,2 C 6,7 C 6,1 C 88 % 1023,3 hPa 0,0 l/m 0 min 0 min 0 W/m 0,0 km/h (0 Bft) 100,00 %
08.01.2020 04:26 7,2 C 6,7 C 6,1 C 88 % 1023,2 hPa 0,0 l/m 0 min 0 min 0 W/m 0,0 km/h (0 Bft) 97,87 %
08.01.2020 04:28 7,2 C 6,7 C 6,1 C 88 % 1023,3 hPa 0,0 l/m 0 min 0 min 0 W/m 3,2 km/h (1 Bft) 100,00 %
08.01.2020 04:30 7,2 C 6,7 C 6,1 C 88 % 1023,3 hPa 0,0 l/m 0 min 0 min 0 W/m 0,0 km/h (0 Bft) 100,00 %
08.01.2020 04:32 7,2 C 6,7 C 6,1 C 88 % 1023,3 hPa 0,0 l/m 0 min 0 min 0 W/m 0,0 km/h (0 Bft) 100,00 %
08.01.2020 04:34 7,2 C 6,7 C 6,1 C 88 % 1023,3 hPa 0,0 l/m 0 min 0 min 0 W/m 3,2 km/h (1 Bft) 100,00 %
08.01.2020 04:36 7,3 C 6,7 C 6,1 C 88 % 1023,3 hPa 0,0 l/m 0 min 0 min 0 W/m 0,0 km/h (0 Bft) 100,00 %
08.01.2020 04:38 7,3 C 6,7 C 6,1 C 88 % 1023,3 hPa 0,0 l/m 0 min 0 min 0 W/m 12,9 km/h (3 Bft) 100,00 %
08.01.2020 04:40 7,3 C 6,7 C 6,1 C 88 % 1023,3 hPa 0,0 l/m 0 min 0 min 0 W/m 3,2 km/h (1 Bft) 100,00 %
08.01.2020 04:42 7,3 C 6,7 C 6,1 C 88 % 1023,3 hPa 0,0 l/m 0 min 0 min 0 W/m 0,0 km/h (0 Bft) 100,00 %
08.01.2020 04:44 7,3 C 6,7 C 6,1 C 88 % 1023,3 hPa 0,0 l/m 0 min 0 min 0 W/m 0,0 km/h (0 Bft) 100,00 %
08.01.2020 04:46 7,3 C 6,7 C 6,1 C 89 % 1023,3 hPa 0,0 l/m 0 min 0 min 0 W/m 16,1 km/h (3 Bft) 97,87 %
08.01.2020 04:48 7,3 C 6,7 C 6,1 C 89 % 1023,2 hPa 0,0 l/m 0 min 0 min 0 W/m 0,0 km/h (0 Bft) 100,00 %
08.01.2020 04:50 7,3 C 6,7 C 6,1 C 89 % 1023,4 hPa 0,0 l/m 0 min 0 min 0 W/m 6,4 km/h (2 Bft) 100,00 %
08.01.2020 04:52 7,3 C 6,7 C 6,1 C 89 % 1023,4 hPa 0,0 l/m 0 min 0 min 0 W/m 0,0 km/h (0 Bft) 97,87 %
08.01.2020 04:54 7,3 C 6,7 C 6,1 C 89 % 1023,4 hPa 0,0 l/m 0 min 0 min 0 W/m 0,0 km/h (0 Bft) 100,00 %
08.01.2020 04:56 7,3 C 6,7 C 6,1 C 89 % 1023,5 hPa 0,0 l/m 0 min 0 min 0 W/m 0,0 km/h (0 Bft) 100,00 %
08.01.2020 04:58 7,3 C 6,7 C 6,1 C 89 % 1023,5 hPa 0,0 l/m 0 min 0 min 0 W/m 0,0 km/h (0 Bft) 100,00 %
08.01.2020 05:00 7,3 C 6,7 C 6,1 C 89 % 1023,5 hPa 0,0 l/m 0 min 0 min 0 W/m 19,3 km/h (3 Bft) 100,00 %
08.01.2020 05:02 7,3 C 6,7 C 6,1 C 90 % 1023,5 hPa 0,0 l/m 0 min 0 min 0 W/m 12,9 km/h (3 Bft) 100,00 %
08.01.2020 05:04 7,4 C 6,7 C 6,1 C 90 % 1023,5 hPa 0,0 l/m 0 min 0 min 0 W/m 0,0 km/h (0 Bft) 100,00 %
08.01.2020 05:06 7,4 C 6,7 C 6,1 C 90 % 1023,5 hPa 0,0 l/m 0 min 0 min 0 W/m 0,0 km/h (0 Bft) 100,00 %
08.01.2020 05:08 7,4 C 6,7 C 6,1 C 90 % 1023,5 hPa 0,0 l/m 0 min 0 min 0 W/m 6,4 km/h (2 Bft) 100,00 %
08.01.2020 05:10 7,4 C 6,7 C 6,1 C 90 % 1023,5 hPa 0,0 l/m 0 min 0 min 0 W/m 3,2 km/h (1 Bft) 100,00 %
08.01.2020 05:12 7,4 C 6,7 C 6,1 C 90 % 1023,6 hPa 0,0 l/m 0 min 0 min 0 W/m 3,2 km/h (1 Bft) 100,00 %
08.01.2020 05:14 7,4 C 6,7 C 6,1 C 90 % 1023,6 hPa 0,0 l/m 0 min 0 min 0 W/m 0,0 km/h (0 Bft) 97,87 %
08.01.2020 05:16 7,4 C 6,7 C 6,1 C 90 % 1023,6 hPa 0,0 l/m 0 min 0 min 0 W/m 0,0 km/h (0 Bft) 100,00 %
08.01.2020 05:18 7,4 C 6,7 C 6,1 C 90 % 1023,5 hPa 0,0 l/m 0 min 0 min 0 W/m 0,0 km/h (0 Bft) 100,00 %
08.01.2020 05:20 7,4 C 6,7 C 6,1 C 90 % 1023,6 hPa 0,0 l/m 0 min 0 min 0 W/m 0,0 km/h (0 Bft) 100,00 %
08.01.2020 05:22 7,4 C 6,7 C 6,1 C 90 % 1023,6 hPa 0,0 l/m 0 min 0 min 0 W/m 6,4 km/h (2 Bft) 97,87 %
08.01.2020 05:24 7,4 C 6,7 C 6,1 C 91 % 1023,5 hPa 0,0 l/m 0 min 0 min 0 W/m 6,4 km/h (2 Bft) 100,00 %
08.01.2020 05:26 7,5 C 6,7 C 6,1 C 90 % 1023,5 hPa 0,0 l/m 0 min 0 min 0 W/m 0,0 km/h (0 Bft) 100,00 %
08.01.2020 05:28 7,5 C 6,7 C 6,1 C 91 % 1023,5 hPa 0,0 l/m 0 min 0 min 0 W/m 6,4 km/h (2 Bft) 97,87 %
08.01.2020 05:30 7,5 C 6,1 C 6,1 C 91 % 1023,4 hPa 0,0 l/m 0 min 0 min 0 W/m 12,9 km/h (3 Bft) 95,65 %
08.01.2020 05:32 7,5 C 6,1 C 5,6 C 91 % 1023,4 hPa 0,0 l/m 0 min 0 min 0 W/m 0,0 km/h (0 Bft) 97,87 %
08.01.2020 05:34 7,5 C 6,1 C 5,6 C 91 % 1023,3 hPa 0,0 l/m 0 min 0 min 0 W/m 0,0 km/h (0 Bft) 97,87 %
08.01.2020 05:36 7,5 C 6,1 C 5,6 C 91 % 1023,3 hPa 0,0 l/m 0 min 0 min 0 W/m 0,0 km/h (0 Bft) 97,87 %
08.01.2020 05:38 7,5 C 6,1 C 5,6 C 91 % 1023,3 hPa 0,0 l/m 0 min 2 min 0 W/m 3,2 km/h (1 Bft) 97,87 %
08.01.2020 05:40 7,5 C 6,1 C 5,6 C 92 % 1023,2 hPa 0,0 l/m 0 min 0 min 0 W/m 16,1 km/h (3 Bft) 97,83 %
08.01.2020 05:42 7,5 C 6,1 C 5,6 C 92 % 1023,2 hPa 0,0 l/m 0 min 0 min 0 W/m 16,1 km/h (3 Bft) 97,87 %
08.01.2020 05:44 7,5 C 6,1 C 5,6 C 92 % 1023,1 hPa 0,0 l/m 0 min 0 min 0 W/m 6,4 km/h (2 Bft) 97,87 %
08.01.2020 05:46 7,5 C 6,1 C 5,6 C 92 % 1023,1 hPa 0,0 l/m 0 min 0 min 0 W/m 9,7 km/h (2 Bft) 97,87 %
08.01.2020 05:48 7,5 C 6,1 C 5,6 C 92 % 1023,0 hPa 0,0 l/m 0 min 0 min 0 W/m 12,9 km/h (3 Bft) 95,74 %
08.01.2020 05:50 7,5 C 6,7 C 5,6 C 93 % 1022,9 hPa 0,0 l/m 0 min 0 min 0 W/m 0,0 km/h (0 Bft) 95,74 %
08.01.2020 05:52 7,5 C 6,7 C 6,1 C 93 % 1023,0 hPa 0,0 l/m 0 min 0 min 0 W/m 12,9 km/h (3 Bft) 95,65 %
08.01.2020 05:54 7,5 C 6,7 C 6,1 C 93 % 1022,9 hPa 0,0 l/m 0 min 0 min 0 W/m 16,1 km/h (3 Bft) 97,87 %
08.01.2020 05:56 7,6 C 6,7 C 6,1 C 93 % 1023,0 hPa 0,0 l/m 0 min 0 min 0 W/m 0,0 km/h (0 Bft) 93,62 %
08.01.2020 05:58 7,6 C 6,7 C 6,1 C 93 % 1023,0 hPa 0,0 l/m 0 min 0 min 0 W/m 3,2 km/h (1 Bft) 95,74 %
08.01.2020 06:00 7,6 C 6,7 C 6,1 C 94 % 1023,1 hPa 0,0 l/m 0 min 2 min 0 W/m 0,0 km/h (0 Bft) 95,74 %
08.01.2020 06:02 7,6 C 6,7 C 6,1 C 94 % 1023,1 hPa 0,0 l/m 0 min 2 min 0 W/m 0,0 km/h (0 Bft) 97,87 %
08.01.2020 06:04 7,6 C 6,7 C 6,1 C 94 % 1023,0 hPa 0,0 l/m 0 min 2 min 0 W/m 6,4 km/h (2 Bft) 95,65 %
08.01.2020 06:06 7,6 C 6,7 C 6,1 C 94 % 1023,0 hPa 0,0 l/m 0 min 0 min 0 W/m 0,0 km/h (0 Bft) 93,62 %
08.01.2020 06:08 7,6 C 6,7 C 6,1 C 94 % 1023,0 hPa 0,0 l/m 0 min 0 min 0 W/m 3,2 km/h (1 Bft) 97,87 %
08.01.2020 06:10 7,6 C 6,7 C 6,1 C 94 % 1023,1 hPa 0,0 l/m 0 min 0 min 0 W/m 3,2 km/h (1 Bft) 95,74 %
08.01.2020 06:12 7,6 C 6,7 C 6,1 C 94 % 1023,1 hPa 0,0 l/m 0 min 0 min 0 W/m 0,0 km/h (0 Bft) 97,87 %
08.01.2020 06:14 7,6 C 6,7 C 6,1 C 94 % 1023,1 hPa 0,0 l/m 0 min 0 min 0 W/m 0,0 km/h (0 Bft) 74,47 %
08.01.2020 06:16 7,6 C 6,7 C 6,1 C 94 % 1023,1 hPa 0,0 l/m 0 min 0 min 0 W/m 0,0 km/h (0 Bft) 71,88 %
08.01.2020 06:18 7,6 C 6,7 C 6,1 C 94 % 1023,1 hPa 0,0 l/m 0 min 0 min 0 W/m 0,0 km/h (0 Bft) 97,87 %
08.01.2020 06:20 7,6 C 6,7 C 6,1 C 94 % 1023,1 hPa 0,0 l/m 0 min 0 min 0 W/m 19,3 km/h (3 Bft) 95,74 %
08.01.2020 06:22 7,6 C 6,7 C 6,1 C 95 % 1023,1 hPa 0,0 l/m 0 min 0 min 0 W/m 0,0 km/h (0 Bft) 97,87 %
08.01.2020 06:24 7,6 C 6,7 C 6,1 C 95 % 1023,0 hPa 0,0 l/m 0 min 0 min 0 W/m 0,0 km/h (0 Bft) 93,62 %
08.01.2020 06:26 7,6 C 6,7 C 6,1 C 95 % 1023,1 hPa 0,0 l/m 0 min 0 min 0 W/m 0,0 km/h (0 Bft) 97,83 %
08.01.2020 06:28 7,6 C 6,7 C 6,1 C 95 % 1023,0 hPa 0,0 l/m 0 min 0 min 0 W/m 0,0 km/h (0 Bft) 97,87 %
08.01.2020 06:30 7,6 C 6,7 C 6,1 C 95 % 1023,0 hPa 0,0 l/m 0 min 0 min 0 W/m 0,0 km/h (0 Bft) 97,87 %
08.01.2020 06:32 7,6 C 6,7 C 6,1 C 95 % 1023,0 hPa 0,0 l/m 0 min 0 min 0 W/m 0,0 km/h (0 Bft) 97,87 %
08.01.2020 06:34 7,6 C 6,7 C 6,1 C 95 % 1022,9 hPa 0,0 l/m 0 min 0 min 0 W/m 0,0 km/h (0 Bft) 95,74 %
08.01.2020 06:36 7,6 C 6,7 C 6,1 C 95 % 1022,9 hPa 0,0 l/m 0 min 0 min 0 W/m 22,5 km/h (4 Bft) 93,62 %
08.01.2020 06:38 7,5 C 6,7 C 6,1 C 95 % 1022,9 hPa 0,0 l/m 0 min 0 min 0 W/m 0,0 km/h (0 Bft) 95,65 %
08.01.2020 06:40 7,6 C 6,7 C 6,1 C 95 % 1022,8 hPa 0,0 l/m 0 min 0 min 0 W/m 19,3 km/h (3 Bft) 95,74 %
08.01.2020 06:42 7,5 C 6,7 C 6,1 C 95 % 1022,8 hPa 0,0 l/m 0 min 0 min 0 W/m 6,4 km/h (2 Bft) 95,74 %
08.01.2020 06:44 7,5 C 6,7 C 6,1 C 95 % 1022,8 hPa 0,0 l/m 0 min 0 min 0 W/m 3,2 km/h (1 Bft) 95,74 %
08.01.2020 06:46 7,5 C 6,7 C 6,1 C 95 % 1022,9 hPa 0,0 l/m 0 min 0 min 0 W/m 0,0 km/h (0 Bft) 93,62 %
08.01.2020 06:48 7,5 C 6,7 C 6,1 C 95 % 1022,8 hPa 0,0 l/m 0 min 0 min 0 W/m 19,3 km/h (3 Bft) 95,74 %
08.01.2020 06:50 7,5 C 6,7 C 6,1 C 95 % 1022,8 hPa 0,0 l/m 0 min 0 min 0 W/m 12,9 km/h (3 Bft) 95,65 %
08.01.2020 06:52 7,4 C 6,7 C 6,1 C 95 % 1022,8 hPa 0,0 l/m 0 min 0 min 0 W/m 12,9 km/h (3 Bft) 95,74 %
08.01.2020 06:54 7,4 C 6,7 C 6,1 C 95 % 1022,9 hPa 0,0 l/m 0 min 0 min 0 W/m 16,1 km/h (3 Bft) 97,87 %
08.01.2020 06:56 7,4 C 6,7 C 6,1 C 95 % 1022,8 hPa 0,0 l/m 0 min 0 min 0 W/m 22,5 km/h (4 Bft) 97,87 %
08.01.2020 06:58 7,4 C 6,7 C 6,1 C 95 % 1022,8 hPa 0,0 l/m 0 min 0 min 0 W/m 12,9 km/h (3 Bft) 97,87 %
08.01.2020 07:00 7,4 C 6,7 C 6,1 C 95 % 1022,8 hPa 0,0 l/m 0 min 0 min 0 W/m 19,3 km/h (3 Bft) 97,87 %
08.01.2020 07:02 7,4 C 6,7 C 6,1 C 95 % 1022,8 hPa 0,0 l/m 0 min 0 min 0 W/m 12,9 km/h (3 Bft) 95,65 %
08.01.2020 07:04 7,4 C 6,7 C 6,1 C 95 % 1022,8 hPa 0,0 l/m 0 min 0 min 0 W/m 16,1 km/h (3 Bft) 97,87 %
08.01.2020 07:06 7,4 C 6,7 C 6,1 C 95 % 1022,9 hPa 0,0 l/m 0 min 0 min 0 W/m 3,2 km/h (1 Bft) 97,87 %
08.01.2020 07:08 7,4 C 6,7 C 6,1 C 95 % 1022,9 hPa 0,0 l/m 0 min 0 min 0 W/m 3,2 km/h (1 Bft) 95,74 %
08.01.2020 07:10 7,4 C 6,7 C 6,1 C 96 % 1022,9 hPa 0,0 l/m 0 min 0 min 0 W/m 16,1 km/h (3 Bft) 97,87 %
08.01.2020 07:12 7,4 C 6,7 C 6,1 C 96 % 1023,0 hPa 0,0 l/m 0 min 0 min 0 W/m 12,9 km/h (3 Bft) 97,87 %
08.01.2020 07:14 7,4 C 6,7 C 6,1 C 96 % 1023,1 hPa 0,0 l/m 0 min 0 min 0 W/m 0,0 km/h (0 Bft) 97,83 %
08.01.2020 07:16 7,4 C 6,7 C 6,1 C 96 % 1023,2 hPa 0,0 l/m 0 min 0 min 0 W/m 3,2 km/h (1 Bft) 97,87 %
08.01.2020 07:18 7,4 C 6,7 C 6,1 C 96 % 1023,1 hPa 0,0 l/m 0 min 0 min 0 W/m 3,2 km/h (1 Bft) 97,87 %
08.01.2020 07:20 7,4 C 6,7 C 6,1 C 96 % 1023,1 hPa 0,0 l/m 0 min 0 min 0 W/m 0,0 km/h (0 Bft) 97,87 %
08.01.2020 07:22 7,4 C 6,7 C 6,1 C 96 % 1023,0 hPa 0,0 l/m 0 min 0 min 0 W/m 16,1 km/h (3 Bft) 97,87 %
08.01.2020 07:24 7,4 C 6,7 C 6,1 C 96 % 1023,1 hPa 0,0 l/m 0 min 0 min 0 W/m 0,0 km/h (0 Bft) 95,74 %
08.01.2020 07:26 7,4 C 6,7 C 6,1 C 96 % 1023,2 hPa 0,0 l/m 0 min 0 min 0 W/m 0,0 km/h (0 Bft) 95,65 %
08.01.2020 07:28 7,4 C 6,7 C 6,1 C 96 % 1023,2 hPa 0,0 l/m 0 min 0 min 0 W/m 3,2 km/h (1 Bft) 97,87 %
08.01.2020 07:30 7,4 C 6,7 C 6,1 C 96 % 1023,2 hPa 0,0 l/m 0 min 0 min 0 W/m 0,0 km/h (0 Bft) 95,74 %
08.01.2020 07:32 7,4 C 6,7 C 6,1 C 96 % 1023,2 hPa 0,0 l/m 0 min 0 min 0 W/m 0,0 km/h (0 Bft) 100,00 %
08.01.2020 07:34 7,4 C 6,7 C 6,1 C 96 % 1023,2 hPa 0,0 l/m 0 min 0 min 0 W/m 0,0 km/h (0 Bft) 100,00 %
08.01.2020 07:36 7,4 C 6,7 C 6,1 C 96 % 1023,2 hPa 0,0 l/m 0 min 0 min 0 W/m 12,9 km/h (3 Bft) 100,00 %
08.01.2020 07:38 7,4 C 6,7 C 6,1 C 96 % 1023,1 hPa 0,0 l/m 0 min 0 min 0 W/m 0,0 km/h (0 Bft) 100,00 %
08.01.2020 07:40 7,4 C 6,7 C 6,1 C 96 % 1023,2 hPa 0,0 l/m 0 min 0 min 0 W/m 0,0 km/h (0 Bft) 97,87 %
08.01.2020 07:42 7,4 C 6,7 C 6,1 C 96 % 1023,2 hPa 0,0 l/m 0 min 0 min 0 W/m 3,2 km/h (1 Bft) 100,00 %
08.01.2020 07:44 7,4 C 6,7 C 6,1 C 96 % 1023,2 hPa 0,0 l/m 0 min 0 min 0 W/m 12,9 km/h (3 Bft) 100,00 %
08.01.2020 07:46 7,5 C 6,7 C 6,1 C 96 % 1023,3 hPa 0,0 l/m 0 min 0 min 0 W/m 0,0 km/h (0 Bft) 97,87 %
08.01.2020 07:48 7,4 C 6,7 C 6,1 C 96 % 1023,3 hPa 0,0 l/m 0 min 0 min 0 W/m 0,0 km/h (0 Bft) 100,00 %
08.01.2020 07:50 7,5 C 6,7 C 6,1 C 96 % 1023,3 hPa 0,0 l/m 0 min 0 min 0 W/m 0,0 km/h (0 Bft) 89,36 %
08.01.2020 07:52 7,5 C 6,7 C 6,1 C 97 % 1023,3 hPa 0,0 l/m 0 min 0 min 0 W/m 0,0 km/h (0 Bft) 100,00 %
08.01.2020 07:54 7,5 C 6,7 C 6,1 C 97 % 1023,3 hPa 0,0 l/m 0 min 0 min 0 W/m 3,2 km/h (1 Bft) 100,00 %
08.01.2020 07:56 7,5 C 6,7 C 6,1 C 97 % 1023,3 hPa 0,0 l/m 0 min 0 min 0 W/m 0,0 km/h (0 Bft) 100,00 %
08.01.2020 07:58 7,5 C 6,7 C 6,1 C 97 % 1023,3 hPa 0,0 l/m 0 min 0 min 0 W/m 3,2 km/h (1 Bft) 100,00 %
08.01.2020 08:00 7,6 C 6,7 C 6,1 C 97 % 1023,3 hPa 0,0 l/m 0 min 0 min 0 W/m 0,0 km/h (0 Bft) 100,00 %
08.01.2020 08:02 7,5 C 6,7 C 6,1 C 97 % 1023,4 hPa 0,0 l/m 0 min 0 min 0 W/m 0,0 km/h (0 Bft) 100,00 %
08.01.2020 08:04 7,6 C 6,7 C 6,7 C 97 % 1023,4 hPa 0,0 l/m 0 min 0 min 0 W/m 0,0 km/h (0 Bft) 97,87 %
08.01.2020 08:06 7,6 C 6,7 C 6,7 C 97 % 1023,4 hPa 0,0 l/m 0 min 0 min 0 W/m 3,2 km/h (1 Bft) 95,74 %
08.01.2020 08:08 7,6 C 6,7 C 6,7 C 97 % 1023,4 hPa 0,0 l/m 0 min 0 min 0 W/m 3,2 km/h (1 Bft) 97,87 %
08.01.2020 08:12 7,6 C 6,7 C 6,7 C 97 % 1023,4 hPa 0,0 l/m 0 min 0 min 0 W/m 0,0 km/h (0 Bft) 97,73 %
08.01.2020 08:20 7,6 C 6,7 C 6,1 C 97 % 1023,5 hPa 0,0 l/m 0 min 0 min 0 W/m 0,0 km/h (0 Bft) 100,00 %
08.01.2020 08:22 7,6 C 6,7 C 6,1 C 97 % 1023,5 hPa 0,0 l/m 0 min 0 min 0 W/m 0,0 km/h (0 Bft) 96,23 %
08.01.2020 08:24 7,6 C 6,7 C 6,1 C 97 % 1023,6 hPa 0,0 l/m 0 min 0 min 0 W/m 6,4 km/h (2 Bft) 97,87 %
08.01.2020 08:26 7,6 C 6,7 C 6,1 C 97 % 1023,6 hPa 0,0 l/m 0 min 0 min 0 W/m 16,1 km/h (3 Bft) 97,87 %
08.01.2020 08:28 7,7 C 6,7 C 6,1 C 97 % 1023,5 hPa 0,0 l/m 0 min 0 min 0 W/m 0,0 km/h (0 Bft) 97,14 %
08.01.2020 08:30 7,7 C 6,7 C 6,1 C 97 % 1023,6 hPa 0,0 l/m 0 min 0 min 0 W/m 0,0 km/h (0 Bft) 98,15 %
08.01.2020 08:32 7,7 C 6,7 C 6,1 C 97 % 1023,5 hPa 0,0 l/m 0 min 0 min 0 W/m 6,4 km/h (2 Bft) 98,00 %
08.01.2020 08:34 7,7 C 6,7 C 6,1 C 97 % 1023,4 hPa 0,0 l/m 0 min 0 min 0 W/m 12,9 km/h (3 Bft) 97,87 %
08.01.2020 08:36 7,7 C 6,7 C 6,7 C 97 % 1023,4 hPa 0,0 l/m 0 min 0 min 0 W/m 0,0 km/h (0 Bft) 92,00 %
08.01.2020 08:38 7,7 C 6,7 C 6,7 C 97 % 1023,4 hPa 0,0 l/m 0 min 0 min 0 W/m 16,1 km/h (3 Bft) 97,83 %
08.01.2020 08:40 7,7 C 6,7 C 6,7 C 97 % 1023,4 hPa 0,0 l/m 0 min 0 min 0 W/m 3,2 km/h (1 Bft) 95,74 %
08.01.2020 08:42 7,7 C 7,2 C 6,7 C 97 % 1023,4 hPa 0,0 l/m 0 min 0 min 0 W/m 0,0 km/h (0 Bft) 97,37 %
08.01.2020 08:44 7,7 C 7,2 C 6,7 C 97 % 1023,4 hPa 0,0 l/m 0 min 0 min 0 W/m 3,2 km/h (1 Bft) 95,74 %
08.01.2020 08:46 7,8 C 7,2 C 6,7 C 97 % 1023,4 hPa 0,0 l/m 0 min 0 min 0 W/m 0,0 km/h (0 Bft) 93,62 %
08.01.2020 08:48 7,8 C 7,2 C 6,7 C 97 % 1023,4 hPa 0,0 l/m 0 min 0 min 0 W/m 0,0 km/h (0 Bft) 97,96 %
08.01.2020 08:50 7,8 C 7,2 C 6,7 C 97 % 1023,4 hPa 0,0 l/m 0 min 0 min 0 W/m 3,2 km/h (1 Bft) 100,00 %
08.01.2020 08:52 7,8 C 7,2 C 6,7 C 97 % 1023,4 hPa 0,0 l/m 0 min 0 min 0 W/m 3,2 km/h (1 Bft) 97,87 %
08.01.2020 08:54 7,8 C 7,2 C 6,7 C 97 % 1023,4 hPa 0,0 l/m 0 min 0 min 0 W/m 3,2 km/h (1 Bft) 97,83 %
08.01.2020 08:56 7,9 C 7,2 C 6,7 C 97 % 1023,5 hPa 0,0 l/m 0 min 0 min 0 W/m 3,2 km/h (1 Bft) 97,87 %
08.01.2020 08:58 7,9 C 7,2 C 6,7 C 97 % 1023,5 hPa 0,0 l/m 0 min 0 min 0 W/m 0,0 km/h (0 Bft) 95,74 %
08.01.2020 09:00 7,9 C 7,2 C 6,7 C 98 % 1023,5 hPa 0,0 l/m 0 min 0 min 0 W/m 0,0 km/h (0 Bft) 98,15 %
08.01.2020 09:02 8,0 C 7,2 C 6,7 C 98 % 1023,5 hPa 0,0 l/m 0 min 0 min 0 W/m 0,0 km/h (0 Bft) 97,37 %
08.01.2020 09:04 8,0 C 7,2 C 7,2 C 98 % 1023,6 hPa 0,0 l/m 0 min 0 min 0 W/m 3,2 km/h (1 Bft) 97,87 %
08.01.2020 09:06 8,1 C 7,2 C 7,2 C 98 % 1023,5 hPa 0,0 l/m 0 min 0 min 2 W/m 3,2 km/h (1 Bft) 95,92 %
08.01.2020 09:08 8,1 C 7,8 C 7,2 C 98 % 1023,6 hPa 0,0 l/m 0 min 0 min 2 W/m 0,0 km/h (0 Bft) 97,87 %
08.01.2020 09:10 8,1 C 7,2 C 7,2 C 98 % 1023,6 hPa 0,0 l/m 0 min 0 min 5 W/m 0,0 km/h (0 Bft) 95,74 %
08.01.2020 09:12 8,1 C 7,2 C 7,2 C 98 % 1023,6 hPa 0,0 l/m 0 min 0 min 5 W/m 6,4 km/h (2 Bft) 97,87 %
08.01.2020 09:14 8,2 C 7,2 C 7,2 C 98 % 1023,6 hPa 0,0 l/m 0 min 0 min 5 W/m 6,4 km/h (2 Bft) 93,62 %
08.01.2020 09:16 8,2 C 7,2 C 7,2 C 98 % 1023,6 hPa 0,0 l/m 0 min 0 min 7 W/m 0,0 km/h (0 Bft) 97,83 %
08.01.2020 09:18 8,2 C 7,2 C 7,2 C 98 % 1023,6 hPa 0,0 l/m 0 min 0 min 7 W/m 3,2 km/h (1 Bft) 97,87 %
08.01.2020 09:20 8,2 C 7,2 C 7,2 C 98 % 1023,6 hPa 0,0 l/m 0 min 0 min 7 W/m 3,2 km/h (1 Bft) 76,60 %
08.01.2020 09:22 8,2 C 7,2 C 7,2 C 98 % 1023,6 hPa 0,0 l/m 0 min 0 min 7 W/m 0,0 km/h (0 Bft) 77,08 %
08.01.2020 09:24 8,3 C 7,2 C 7,2 C 98 % 1023,6 hPa 0,0 l/m 0 min 0 min 7 W/m 3,2 km/h (1 Bft) 97,87 %
08.01.2020 09:26 8,3 C 7,8 C 7,2 C 98 % 1023,6 hPa 0,0 l/m 0 min 0 min 7 W/m 0,0 km/h (0 Bft) 97,96 %
08.01.2020 09:28 8,3 C 7,8 C 7,2 C 98 % 1023,6 hPa 0,0 l/m 0 min 0 min 8 W/m 0,0 km/h (0 Bft) 94,74 %
08.01.2020 09:30 8,3 C 7,8 C 7,2 C 98 % 1023,6 hPa 0,0 l/m 0 min 0 min 7 W/m 0,0 km/h (0 Bft) 97,87 %
08.01.2020 09:32 8,3 C 7,8 C 7,2 C 98 % 1023,7 hPa 0,0 l/m 0 min 0 min 7 W/m 0,0 km/h (0 Bft) 98,00 %
08.01.2020 09:34 8,3 C 7,8 C 7,2 C 98 % 1023,7 hPa 0,0 l/m 0 min 0 min 7 W/m 3,2 km/h (1 Bft) 98,00 %
08.01.2020 09:36 8,4 C 7,8 C 7,2 C 98 % 1023,8 hPa 0,0 l/m 0 min 0 min 5 W/m 0,0 km/h (0 Bft) 97,87 %
08.01.2020 09:38 8,4 C 7,8 C 7,2 C 98 % 1023,8 hPa 0,0 l/m 0 min 0 min 5 W/m 0,0 km/h (0 Bft) 95,92 %
08.01.2020 09:40 8,4 C 7,8 C 7,2 C 98 % 1023,9 hPa 0,0 l/m 0 min 0 min 5 W/m 0,0 km/h (0 Bft) 97,87 %
08.01.2020 09:42 8,4 C 7,8 C 7,2 C 98 % 1023,9 hPa 0,0 l/m 0 min 0 min 5 W/m 0,0 km/h (0 Bft) 97,87 %
08.01.2020 09:44 8,5 C 7,8 C 7,2 C 98 % 1023,9 hPa 0,0 l/m 0 min 0 min 7 W/m 0,0 km/h (0 Bft) 97,37 %
08.01.2020 09:46 8,5 C 7,8 C 7,2 C 98 % 1023,8 hPa 0,0 l/m 0 min 0 min 8 W/m 0,0 km/h (0 Bft) 97,87 %
08.01.2020 09:48 8,6 C 7,8 C 7,2 C 98 % 1023,8 hPa 0,0 l/m 0 min 0 min 9 W/m 0,0 km/h (0 Bft) 93,62 %
08.01.2020 09:50 8,6 C 7,8 C 7,2 C 98 % 1023,8 hPa 0,0 l/m 0 min 0 min 11 W/m 0,0 km/h (0 Bft) 100,00 %
08.01.2020 09:52 8,6 C 8,3 C 7,2 C 98 % 1023,8 hPa 0,0 l/m 0 min 0 min 12 W/m 0,0 km/h (0 Bft) 100,00 %
08.01.2020 09:54 8,6 C 8,3 C 7,8 C 98 % 1023,9 hPa 0,0 l/m 0 min 0 min 12 W/m 0,0 km/h (0 Bft) 100,00 %
08.01.2020 09:56 8,7 C 8,3 C 7,8 C 98 % 1023,9 hPa 0,0 l/m 0 min 0 min 12 W/m 0,0 km/h (0 Bft) 100,00 %
08.01.2020 09:58 8,7 C 8,9 C 7,8 C 98 % 1023,9 hPa 0,0 l/m 0 min 0 min 12 W/m 6,4 km/h (2 Bft) 100,00 %
08.01.2020 10:00 8,8 C 9,4 C 8,3 C 99 % 1023,9 hPa 0,0 l/m 0 min 0 min 12 W/m 0,0 km/h (0 Bft) 95,74 %
08.01.2020 10:02 8,9 C 9,4 C 8,3 C 99 % 1023,9 hPa 0,0 l/m 0 min 0 min 12 W/m 0,0 km/h (0 Bft) 97,83 %
08.01.2020 10:04 9,1 C 9,4 C 8,9 C 99 % 1023,9 hPa 0,0 l/m 0 min 0 min 12 W/m 29,0 km/h (5 Bft) 97,87 %
08.01.2020 10:06 9,2 C 9,4 C 8,9 C 99 % 1023,9 hPa 0,0 l/m 0 min 0 min 14 W/m 0,0 km/h (0 Bft) 95,74 %
08.01.2020 10:08 9,3 C 9,4 C 8,9 C 99 % 1023,8 hPa 0,0 l/m 0 min 0 min 12 W/m 16,1 km/h (3 Bft) 97,67 %
08.01.2020 10:10 9,4 C 10,0 C 8,9 C 99 % 1023,9 hPa 0,0 l/m 0 min 0 min 16 W/m 3,2 km/h (1 Bft) 97,87 %
08.01.2020 10:12 9,6 C 10,0 C 8,9 C 99 % 1024,0 hPa 0,0 l/m 0 min 0 min 16 W/m 0,0 km/h (0 Bft) 96,00 %
08.01.2020 10:14 9,7 C 10,0 C 8,9 C 99 % 1024,0 hPa 0,0 l/m 0 min 0 min 13 W/m 3,2 km/h (1 Bft) 97,83 %
08.01.2020 10:16 9,8 C 10,0 C 9,4 C 99 % 1024,1 hPa 0,0 l/m 0 min 0 min 12 W/m 16,1 km/h (3 Bft) 97,87 %
08.01.2020 10:18 9,8 C 10,0 C 9,4 C 99 % 1024,1 hPa 0,0 l/m 0 min 0 min 12 W/m 0,0 km/h (0 Bft) 97,87 %
08.01.2020 10:20 9,9 C 10,0 C 9,4 C 99 % 1024,2 hPa 0,0 l/m 0 min 0 min 12 W/m 0,0 km/h (0 Bft) 97,92 %
08.01.2020 10:22 9,9 C 10,0 C 9,4 C 99 % 1024,1 hPa 0,0 l/m 0 min 0 min 12 W/m 12,9 km/h (3 Bft) 97,87 %
08.01.2020 10:24 10,0 C 10,0 C 9,4 C 99 % 1024,1 hPa 0,0 l/m 0 min 0 min 11 W/m 0,0 km/h (0 Bft) 97,67 %
08.01.2020 10:26 10,0 C 10,0 C 9,4 C 99 % 1024,2 hPa 0,0 l/m 0 min 0 min 9 W/m 19,3 km/h (3 Bft) 95,92 %
08.01.2020 10:28 10,1 C 10,0 C 9,4 C 99 % 1024,3 hPa 0,0 l/m 0 min 0 min 12 W/m 19,3 km/h (3 Bft) 95,74 %
08.01.2020 10:30 10,1 C 10,0 C 9,4 C 99 % 1024,2 hPa 0,0 l/m 0 min 0 min 13 W/m 3,2 km/h (1 Bft) 97,96 %
08.01.2020 10:32 10,2 C 10,0 C 9,4 C 99 % 1024,2 hPa 0,0 l/m 0 min 0 min 14 W/m 9,7 km/h (2 Bft) 95,74 %
08.01.2020 10:34 10,2 C 10,0 C 9,4 C 99 % 1024,2 hPa 0,0 l/m 0 min 0 min 15 W/m 6,4 km/h (2 Bft) 97,87 %
08.01.2020 10:36 10,2 C 10,0 C 9,4 C 99 % 1024,2 hPa 0,0 l/m 0 min 0 min 17 W/m 12,9 km/h (3 Bft) 97,87 %
08.01.2020 10:38 10,3 C 10,0 C 9,4 C 99 % 1024,1 hPa 0,0 l/m 0 min 0 min 21 W/m 22,5 km/h (4 Bft) 95,12 %
08.01.2020 10:40 10,3 C 10,0 C 9,4 C 99 % 1024,1 hPa 0,0 l/m 0 min 0 min 17 W/m 6,4 km/h (2 Bft) 96,00 %
08.01.2020 10:42 10,4 C 10,0 C 9,4 C 99 % 1024,2 hPa 0,0 l/m 0 min 0 min 14 W/m 16,1 km/h (3 Bft) 95,74 %
08.01.2020 10:44 10,4 C 10,0 C 9,4 C 99 % 1024,1 hPa 0,0 l/m 0 min 0 min 15 W/m 9,7 km/h (2 Bft) 93,62 %
08.01.2020 10:46 10,4 C 10,0 C 9,4 C 99 % 1024,1 hPa 0,0 l/m 0 min 0 min 20 W/m 16,1 km/h (3 Bft) 93,62 %
08.01.2020 10:48 10,4 C 10,0 C 9,4 C 99 % 1024,2 hPa 0,0 l/m 0 min 0 min 25 W/m 12,9 km/h (3 Bft) 95,65 %
08.01.2020 10:50 10,5 C 10,0 C 9,4 C 99 % 1024,1 hPa 0,0 l/m 0 min 0 min 25 W/m 12,9 km/h (3 Bft) 95,74 %
08.01.2020 10:52 10,5 C 10,0 C 9,4 C 99 % 1024,1 hPa 0,0 l/m 0 min 0 min 30 W/m 3,2 km/h (1 Bft) 97,87 %
08.01.2020 10:54 10,5 C 10,0 C 9,4 C 99 % 1024,1 hPa 0,0 l/m 0 min 0 min 35 W/m 16,1 km/h (3 Bft) 97,87 %
08.01.2020 10:56 10,6 C 10,0 C 9,4 C 99 % 1024,1 hPa 0,0 l/m 0 min 0 min 43 W/m 12,9 km/h (3 Bft) 95,74 %
08.01.2020 10:58 10,6 C 10,0 C 9,4 C 99 % 1024,2 hPa 0,0 l/m 0 min 0 min 37 W/m 16,1 km/h (3 Bft) 97,87 %
08.01.2020 11:00 10,6 C 10,0 C 9,4 C 99 % 1024,2 hPa 0,0 l/m 0 min 0 min 32 W/m 12,9 km/h (3 Bft) 95,65 %
08.01.2020 11:02 10,6 C 10,0 C 9,4 C 99 % 1024,2 hPa 0,0 l/m 0 min 0 min 31 W/m 3,2 km/h (1 Bft) 97,87 %
08.01.2020 11:04 10,6 C 10,0 C 9,4 C 99 % 1024,2 hPa 0,0 l/m 0 min 0 min 31 W/m 19,3 km/h (3 Bft) 95,74 %
08.01.2020 11:06 10,7 C 10,0 C 9,4 C 99 % 1024,2 hPa 0,0 l/m 0 min 0 min 22 W/m 16,1 km/h (3 Bft) 98,00 %
08.01.2020 11:08 10,7 C 10,0 C 9,4 C 99 % 1024,2 hPa 0,0 l/m 0 min 0 min 22 W/m 6,4 km/h (2 Bft) 97,87 %
08.01.2020 11:10 10,7 C 10,0 C 9,4 C 99 % 1024,3 hPa 0,0 l/m 0 min 0 min 22 W/m 12,9 km/h (3 Bft) 97,87 %
08.01.2020 11:12 10,7 C 10,0 C 9,4 C 99 % 1024,2 hPa 0,0 l/m 0 min 0 min 20 W/m 19,3 km/h (3 Bft) 97,83 %
08.01.2020 11:14 10,7 C 10,0 C 9,4 C 99 % 1024,3 hPa 0,0 l/m 0 min 0 min 20 W/m 6,4 km/h (2 Bft) 97,87 %
08.01.2020 11:16 10,7 C 10,0 C 9,4 C 99 % 1024,3 hPa 0,0 l/m 0 min 0 min 25 W/m 0,0 km/h (0 Bft) 95,92 %
08.01.2020 11:18 10,7 C 10,0 C 9,4 C 99 % 1024,3 hPa 0,0 l/m 0 min 0 min 30 W/m 16,1 km/h (3 Bft) 100,00 %
08.01.2020 11:20 10,7 C 10,6 C 10,0 C 99 % 1024,3 hPa 0,0 l/m 0 min 0 min 38 W/m 0,0 km/h (0 Bft) 68,09 %
08.01.2020 11:22 10,8 C 10,6 C 10,0 C 99 % 1024,2 hPa 0,0 l/m 0 min 0 min 47 W/m 12,9 km/h (3 Bft) 82,05 %
08.01.2020 11:24 10,8 C 10,6 C 10,0 C 99 % 1024,2 hPa 0,0 l/m 0 min 0 min 62 W/m 19,3 km/h (3 Bft) 100,00 %
08.01.2020 11:26 10,8 C 10,6 C 10,0 C 99 % 1024,2 hPa 0,0 l/m 0 min 0 min 68 W/m 0,0 km/h (0 Bft) 100,00 %
08.01.2020 11:28 10,8 C 10,6 C 10,0 C 99 % 1024,2 hPa 0,0 l/m 0 min 0 min 52 W/m 0,0 km/h (0 Bft) 100,00 %
08.01.2020 11:30 10,8 C 10,6 C 10,0 C 99 % 1024,1 hPa 0,0 l/m 0 min 0 min 40 W/m 12,9 km/h (3 Bft) 97,87 %
08.01.2020 11:32 10,9 C 10,6 C 10,0 C 99 % 1024,1 hPa 0,0 l/m 0 min 0 min 31 W/m 16,1 km/h (3 Bft) 100,00 %
08.01.2020 11:34 10,9 C 10,6 C 10,0 C 99 % 1024,1 hPa 0,0 l/m 0 min 0 min 32 W/m 19,3 km/h (3 Bft) 100,00 %
08.01.2020 11:36 10,9 C 10,0 C 10,0 C 99 % 1024,1 hPa 0,0 l/m 0 min 0 min 32 W/m 12,9 km/h (3 Bft) 97,87 %
08.01.2020 11:38 10,9 C 10,0 C 10,0 C 99 % 1024,1 hPa 0,0 l/m 0 min 0 min 35 W/m 6,4 km/h (2 Bft) 100,00 %
08.01.2020 11:40 10,9 C 10,0 C 10,0 C 99 % 1024,1 hPa 0,0 l/m 0 min 0 min 42 W/m 12,9 km/h (3 Bft) 97,87 %
08.01.2020 11:42 10,9 C 10,0 C 10,0 C 99 % 1024,1 hPa 0,0 l/m 0 min 0 min 42 W/m 32,2 km/h (5 Bft) 97,92 %
08.01.2020 11:44 10,9 C 10,0 C 10,0 C 99 % 1024,0 hPa 0,0 l/m 0 min 0 min 45 W/m 12,9 km/h (3 Bft) 100,00 %
08.01.2020 11:46 11,0 C 10,0 C 10,0 C 99 % 1024,0 hPa 0,0 l/m 0 min 0 min 68 W/m 19,3 km/h (3 Bft) 100,00 %
08.01.2020 11:48 11,0 C 10,6 C 10,0 C 99 % 1024,0 hPa 0,0 l/m 0 min 0 min 96 W/m 3,2 km/h (1 Bft) 97,30 %
08.01.2020 11:50 11,1 C 10,6 C 10,0 C 99 % 1024,0 hPa 0,0 l/m 0 min 0 min 83 W/m 6,4 km/h (2 Bft) 97,87 %
08.01.2020 11:52 11,1 C 10,6 C 10,0 C 99 % 1024,0 hPa 0,0 l/m 0 min 2 min 86 W/m 3,2 km/h (1 Bft) 97,92 %
08.01.2020 11:54 11,1 C 10,6 C 10,0 C 99 % 1024,1 hPa 0,0 l/m 0 min 2 min 84 W/m 12,9 km/h (3 Bft) 100,00 %
08.01.2020 11:56 11,1 C 10,6 C 10,0 C 99 % 1024,1 hPa 0,0 l/m 0 min 2 min 82 W/m 6,4 km/h (2 Bft) 100,00 %
08.01.2020 11:58 11,1 C 10,6 C 10,0 C 99 % 1024,0 hPa 0,0 l/m 0 min 2 min 83 W/m 6,4 km/h (2 Bft) 97,87 %
08.01.2020 12:00 11,1 C 10,6 C 10,0 C 99 % 1024,0 hPa 0,0 l/m 0 min 2 min 89 W/m 12,9 km/h (3 Bft) 93,62 %
08.01.2020 12:02 11,2 C 10,6 C 10,0 C 99 % 1024,0 hPa 0,0 l/m 0 min 0 min 114 W/m 6,4 km/h (2 Bft) 95,12 %
08.01.2020 12:04 11,2 C 10,6 C 10,0 C 99 % 1023,9 hPa 0,0 l/m 0 min 0 min 133 W/m 3,2 km/h (1 Bft) 95,74 %
08.01.2020 12:06 11,2 C 10,6 C 10,0 C 99 % 1023,9 hPa 0,0 l/m 0 min 0 min 124 W/m 3,2 km/h (1 Bft) 98,11 %
08.01.2020 12:08 11,2 C 10,6 C 10,0 C 99 % 1023,9 hPa 0,0 l/m 0 min 0 min 105 W/m 0,0 km/h (0 Bft) 97,56 %
08.01.2020 12:10 11,3 C 10,6 C 10,0 C 99 % 1023,8 hPa 0,0 l/m 0 min 0 min 98 W/m 12,9 km/h (3 Bft) 97,87 %
08.01.2020 12:12 11,3 C 10,6 C 10,0 C 99 % 1023,6 hPa 0,0 l/m 0 min 0 min 117 W/m 0,0 km/h (0 Bft) 97,87 %
08.01.2020 12:14 11,3 C 10,6 C 10,0 C 99 % 1023,6 hPa 0,0 l/m 0 min 0 min 133 W/m 16,1 km/h (3 Bft) 95,65 %
08.01.2020 12:16 11,3 C 10,6 C 10,0 C 99 % 1023,7 hPa 0,0 l/m 0 min 0 min 101 W/m 25,7 km/h (4 Bft) 97,87 %
08.01.2020 12:18 11,3 C 10,6 C 10,0 C 99 % 1023,6 hPa 0,0 l/m 0 min 0 min 73 W/m 12,9 km/h (3 Bft) 97,87 %
08.01.2020 12:20 11,3 C 10,6 C 10,0 C 99 % 1023,5 hPa 0,0 l/m 0 min 0 min 65 W/m 9,7 km/h (2 Bft) 97,87 %
08.01.2020 12:22 11,3 C 10,6 C 10,0 C 99 % 1023,5 hPa 0,0 l/m 0 min 0 min 52 W/m 12,9 km/h (3 Bft) 93,62 %
08.01.2020 12:24 11,3 C 10,6 C 10,0 C 99 % 1023,5 hPa 0,0 l/m 0 min 0 min 45 W/m 3,2 km/h (1 Bft) 97,87 %
08.01.2020 12:26 11,3 C 10,6 C 10,0 C 99 % 1023,5 hPa 0,0 l/m 0 min 0 min 41 W/m 3,2 km/h (1 Bft) 97,83 %
08.01.2020 12:28 11,3 C 10,6 C 10,0 C 99 % 1023,5 hPa 0,0 l/m 0 min 0 min 44 W/m 12,9 km/h (3 Bft) 95,74 %
08.01.2020 12:30 11,3 C 10,6 C 10,0 C 99 % 1023,4 hPa 0,0 l/m 0 min 0 min 41 W/m 16,1 km/h (3 Bft) 97,87 %
08.01.2020 12:32 11,3 C 10,6 C 10,0 C 99 % 1023,4 hPa 0,0 l/m 0 min 0 min 44 W/m 25,7 km/h (4 Bft) 97,87 %
08.01.2020 12:34 11,3 C 10,6 C 10,0 C 99 % 1023,5 hPa 0,0 l/m 0 min 0 min 41 W/m 3,2 km/h (1 Bft) 95,74 %
08.01.2020 12:36 11,3 C 10,6 C 10,0 C 99 % 1023,5 hPa 0,0 l/m 0 min 0 min 39 W/m 9,7 km/h (2 Bft) 97,83 %
08.01.2020 12:38 11,3 C 10,6 C 10,0 C 99 % 1023,5 hPa 0,0 l/m 0 min 0 min 43 W/m 12,9 km/h (3 Bft) 97,87 %
08.01.2020 12:40 11,3 C 10,6 C 10,0 C 99 % 1023,5 hPa 0,0 l/m 0 min 0 min 44 W/m 0,0 km/h (0 Bft) 97,87 %
08.01.2020 12:42 11,3 C 10,6 C 10,0 C 99 % 1023,6 hPa 0,0 l/m 0 min 0 min 47 W/m 3,2 km/h (1 Bft) 97,87 %
08.01.2020 12:44 11,3 C 10,6 C 10,0 C 99 % 1023,5 hPa 0,0 l/m 0 min 0 min 35 W/m 19,3 km/h (3 Bft) 97,87 %
08.01.2020 12:46 11,3 C 10,6 C 10,0 C 99 % 1023,5 hPa 0,0 l/m 0 min 0 min 25 W/m 6,4 km/h (2 Bft) 97,87 %
08.01.2020 12:48 11,3 C 10,6 C 10,0 C 99 % 1023,5 hPa 0,0 l/m 0 min 0 min 26 W/m 12,9 km/h (3 Bft) 97,83 %
08.01.2020 12:50 11,3 C 10,6 C 10,0 C 99 % 1023,4 hPa 0,0 l/m 0 min 0 min 30 W/m 12,9 km/h (3 Bft) 97,87 %
08.01.2020 12:52 11,3 C 10,6 C 10,0 C 99 % 1023,4 hPa 0,0 l/m 0 min 0 min 31 W/m 19,3 km/h (3 Bft) 100,00 %
08.01.2020 12:54 11,3 C 11,1 C 10,0 C 99 % 1023,4 hPa 0,0 l/m 0 min 0 min 33 W/m 3,2 km/h (1 Bft) 100,00 %
08.01.2020 12:56 11,3 C 11,1 C 10,0 C 99 % 1023,5 hPa 0,0 l/m 0 min 0 min 30 W/m 12,9 km/h (3 Bft) 100,00 %
08.01.2020 12:58 11,3 C 11,1 C 10,6 C 99 % 1023,5 hPa 0,0 l/m 0 min 0 min 34 W/m 19,3 km/h (3 Bft) 97,87 %
08.01.2020 13:00 11,3 C 11,1 C 10,6 C 99 % 1023,4 hPa 0,0 l/m 0 min 0 min 38 W/m 3,2 km/h (1 Bft) 100,00 %
08.01.2020 13:02 11,3 C 11,1 C 10,6 C 99 % 1023,4 hPa 0,0 l/m 0 min 0 min 49 W/m 3,2 km/h (1 Bft) 100,00 %
08.01.2020 13:04 11,3 C 11,1 C 10,6 C 99 % 1023,4 hPa 0,0 l/m 0 min 0 min 66 W/m 6,4 km/h (2 Bft) 97,87 %
08.01.2020 13:06 11,3 C 11,1 C 10,6 C 99 % 1023,3 hPa 0,0 l/m 0 min 0 min 78 W/m 16,1 km/h (3 Bft) 93,62 %
08.01.2020 13:08 11,3 C 11,1 C 10,6 C 99 % 1023,3 hPa 0,0 l/m 0 min 0 min 72 W/m 6,4 km/h (2 Bft) 95,74 %
08.01.2020 13:10 11,4 C 11,1 C 10,6 C 99 % 1023,3 hPa 0,0 l/m 0 min 0 min 68 W/m 22,5 km/h (4 Bft) 95,74 %
08.01.2020 13:12 11,4 C 11,1 C 10,6 C 99 % 1023,3 hPa 0,0 l/m 0 min 0 min 71 W/m 16,1 km/h (3 Bft) 95,65 %
08.01.2020 13:14 11,4 C 11,1 C 10,6 C 99 % 1023,4 hPa 0,0 l/m 0 min 0 min 62 W/m 16,1 km/h (3 Bft) 95,74 %
08.01.2020 13:16 11,4 C 11,1 C 10,6 C 99 % 1023,4 hPa 0,0 l/m 0 min 0 min 58 W/m 3,2 km/h (1 Bft) 95,74 %
08.01.2020 13:18 11,4 C 11,1 C 10,6 C 99 % 1023,4 hPa 0,0 l/m 0 min 0 min 56 W/m 0,0 km/h (0 Bft) 95,74 %
08.01.2020 13:20 11,4 C 11,1 C 10,6 C 99 % 1023,4 hPa 0,0 l/m 0 min 0 min 67 W/m 3,2 km/h (1 Bft) 97,87 %
08.01.2020 13:22 11,4 C 11,1 C 10,6 C 99 % 1023,3 hPa 0,0 l/m 0 min 0 min 59 W/m 12,9 km/h (3 Bft) 94,55 %
08.01.2020 13:24 11,4 C 11,1 C 10,6 C 99 % 1023,4 hPa 0,0 l/m 0 min 0 min 54 W/m 12,9 km/h (3 Bft) 95,74 %
08.01.2020 13:26 11,5 C 11,1 C 10,6 C 99 % 1023,4 hPa 0,0 l/m 0 min 0 min 46 W/m 6,4 km/h (2 Bft) 95,74 %
08.01.2020 13:28 11,5 C 11,1 C 10,6 C 99 % 1023,5 hPa 0,0 l/m 0 min 0 min 43 W/m 19,3 km/h (3 Bft) 91,49 %
08.01.2020 13:30 11,5 C 11,1 C 10,6 C 99 % 1023,4 hPa 0,0 l/m 0 min 0 min 42 W/m 6,4 km/h (2 Bft) 95,74 %
08.01.2020 13:32 11,5 C 11,1 C 10,6 C 99 % 1023,4 hPa 0,0 l/m 0 min 0 min 45 W/m 3,2 km/h (1 Bft) 95,65 %
08.01.2020 13:34 11,5 C 11,1 C 10,6 C 99 % 1023,4 hPa 0,0 l/m 0 min 0 min 39 W/m 6,4 km/h (2 Bft) 95,74 %
08.01.2020 13:36 11,5 C 11,1 C 10,6 C 99 % 1023,4 hPa 0,0 l/m 0 min 0 min 36 W/m 19,3 km/h (3 Bft) 93,62 %
08.01.2020 13:38 11,5 C 11,1 C 10,6 C 99 % 1023,3 hPa 0,0 l/m 0 min 0 min 38 W/m 12,9 km/h (3 Bft) 93,62 %
08.01.2020 13:40 11,5 C 11,1 C 10,6 C 99 % 1023,3 hPa 0,0 l/m 0 min 0 min 37 W/m 6,4 km/h (2 Bft) 95,74 %
08.01.2020 13:42 11,5 C 11,1 C 10,6 C 99 % 1023,3 hPa 0,0 l/m 0 min 0 min 35 W/m 16,1 km/h (3 Bft) 95,74 %
08.01.2020 13:44 11,5 C 10,6 C 10,6 C 99 % 1023,2 hPa 0,0 l/m 0 min 0 min 37 W/m 0,0 km/h (0 Bft) 95,65 %
08.01.2020 13:46 11,5 C 10,6 C 10,0 C 99 % 1023,2 hPa 0,0 l/m 0 min 0 min 29 W/m 6,4 km/h (2 Bft) 93,62 %
08.01.2020 13:48 11,5 C 10,6 C 10,0 C 99 % 1023,3 hPa 0,0 l/m 0 min 0 min 23 W/m 29,0 km/h (5 Bft) 97,87 %
08.01.2020 13:50 11,5 C 10,6 C 10,0 C 99 % 1023,3 hPa 0,0 l/m 0 min 0 min 19 W/m 9,7 km/h (2 Bft) 97,87 %
08.01.2020 13:52 11,5 C 10,6 C 10,0 C 99 % 1023,2 hPa 0,0 l/m 0 min 0 min 17 W/m 9,7 km/h (2 Bft) 97,87 %
08.01.2020 13:54 11,5 C 10,6 C 10,0 C 99 % 1023,3 hPa 0,0 l/m 0 min 0 min 14 W/m 16,1 km/h (3 Bft) 97,87 %
08.01.2020 13:56 11,5 C 10,6 C 10,0 C 99 % 1023,2 hPa 0,0 l/m 0 min 0 min 14 W/m 9,7 km/h (2 Bft) 100,00 %
08.01.2020 13:58 11,4 C 10,6 C 10,0 C 99 % 1023,2 hPa 0,0 l/m 0 min 0 min 16 W/m 0,0 km/h (0 Bft) 100,00 %
08.01.2020 14:00 11,4 C 10,6 C 10,0 C 99 % 1023,2 hPa 0,0 l/m 0 min 0 min 24 W/m 6,4 km/h (2 Bft) 100,00 %
08.01.2020 14:02 11,4 C 10,6 C 10,0 C 99 % 1023,3 hPa 0,0 l/m 0 min 0 min 28 W/m 3,2 km/h (1 Bft) 100,00 %
08.01.2020 14:04 11,4 C 10,6 C 10,0 C 99 % 1023,2 hPa 0,0 l/m 0 min 0 min 27 W/m 3,2 km/h (1 Bft) 100,00 %
08.01.2020 14:06 11,4 C 10,6 C 10,0 C 99 % 1023,2 hPa 0,0 l/m 0 min 0 min 27 W/m 3,2 km/h (1 Bft) 97,22 %
08.01.2020 14:08 11,4 C 10,6 C 10,0 C 99 % 1023,3 hPa 0,0 l/m 0 min 0 min 32 W/m 0,0 km/h (0 Bft) 100,00 %
08.01.2020 14:10 11,4 C 10,6 C 10,0 C 99 % 1023,3 hPa 0,0 l/m 0 min 0 min 38 W/m 0,0 km/h (0 Bft) 100,00 %
08.01.2020 14:12 11,4 C 10,6 C 10,0 C 99 % 1023,2 hPa 0,0 l/m 0 min 0 min 38 W/m 6,4 km/h (2 Bft) 100,00 %
08.01.2020 14:14 11,4 C 10,6 C 10,0 C 99 % 1023,3 hPa 0,0 l/m 0 min 0 min 28 W/m 3,2 km/h (1 Bft) 100,00 %
08.01.2020 14:16 11,4 C 10,6 C 10,0 C 99 % 1023,3 hPa 0,0 l/m 0 min 0 min 22 W/m 3,2 km/h (1 Bft) 100,00 %
08.01.2020 14:18 11,4 C 10,6 C 10,0 C 99 % 1023,3 hPa 0,0 l/m 0 min 0 min 25 W/m 35,4 km/h (5 Bft) 100,00 %
08.01.2020 14:20 11,4 C 10,6 C 10,0 C 99 % 1023,3 hPa 0,0 l/m 0 min 0 min 31 W/m 3,2 km/h (1 Bft) 100,00 %
08.01.2020 14:22 11,4 C 10,6 C 10,0 C 99 % 1023,4 hPa 0,0 l/m 0 min 2 min 38 W/m 19,3 km/h (3 Bft) 100,00 %
08.01.2020 14:24 11,4 C 10,6 C 10,0 C 99 % 1023,3 hPa 0,0 l/m 0 min 0 min 37 W/m 12,9 km/h (3 Bft) 100,00 %
08.01.2020 14:26 11,4 C 10,6 C 10,0 C 99 % 1023,3 hPa 0,0 l/m 0 min 0 min 34 W/m 0,0 km/h (0 Bft) 100,00 %
08.01.2020 14:28 11,4 C 10,6 C 10,0 C 99 % 1023,4 hPa 0,0 l/m 0 min 0 min 33 W/m 16,1 km/h (3 Bft) 100,00 %
08.01.2020 14:30 11,4 C 10,6 C 10,0 C 99 % 1023,4 hPa 0,0 l/m 0 min 0 min 31 W/m 16,1 km/h (3 Bft) 100,00 %
08.01.2020 14:32 11,4 C 10,6 C 10,0 C 99 % 1023,4 hPa 0,0 l/m 0 min 0 min 30 W/m 3,2 km/h (1 Bft) 96,36 %
08.01.2020 14:34 11,4 C 10,6 C 10,0 C 99 % 1023,5 hPa 0,0 l/m 0 min 0 min 28 W/m 3,2 km/h (1 Bft) 100,00 %
08.01.2020 14:36 11,4 C 10,6 C 10,0 C 99 % 1023,5 hPa 0,0 l/m 0 min 0 min 28 W/m 16,1 km/h (3 Bft) 100,00 %
08.01.2020 14:38 11,4 C 10,6 C 10,0 C 99 % 1023,5 hPa 0,0 l/m 0 min 0 min 33 W/m 16,1 km/h (3 Bft) 100,00 %
08.01.2020 14:40 11,4 C 10,6 C 10,0 C 99 % 1023,5 hPa 0,0 l/m 0 min 0 min 34 W/m 0,0 km/h (0 Bft) 100,00 %
08.01.2020 14:42 11,4 C 10,6 C 10,0 C 99 % 1023,6 hPa 0,0 l/m 0 min 0 min 28 W/m 0,0 km/h (0 Bft) 100,00 %
08.01.2020 14:44 11,4 C 10,6 C 10,0 C 99 % 1023,5 hPa 0,0 l/m 0 min 0 min 30 W/m 0,0 km/h (0 Bft) 97,87 %
08.01.2020 14:46 11,4 C 10,6 C 10,0 C 99 % 1023,6 hPa 0,0 l/m 0 min 0 min 25 W/m 12,9 km/h (3 Bft) 100,00 %
08.01.2020 14:48 11,4 C 10,6 C 10,0 C 99 % 1023,5 hPa 0,0 l/m 0 min 0 min 23 W/m 0,0 km/h (0 Bft) 100,00 %
08.01.2020 14:50 11,4 C 10,6 C 10,0 C 99 % 1023,5 hPa 0,0 l/m 0 min 0 min 26 W/m 12,9 km/h (3 Bft) 100,00 %
08.01.2020 14:52 11,4 C 10,6 C 10,0 C 99 % 1023,5 hPa 0,0 l/m 0 min 0 min 26 W/m 16,1 km/h (3 Bft) 97,83 %
08.01.2020 14:54 11,3 C 10,6 C 10,0 C 99 % 1023,5 hPa 0,0 l/m 0 min 0 min 22 W/m 16,1 km/h (3 Bft) 95,74 %
08.01.2020 14:56 11,4 C 10,6 C 10,0 C 99 % 1023,5 hPa 0,0 l/m 0 min 0 min 17 W/m 22,5 km/h (4 Bft) 100,00 %
08.01.2020 14:58 11,4 C 10,6 C 10,0 C 99 % 1023,5 hPa 0,0 l/m 0 min 0 min 14 W/m 16,1 km/h (3 Bft) 95,74 %
08.01.2020 15:00 11,4 C 10,6 C 10,0 C 99 % 1023,5 hPa 0,0 l/m 0 min 0 min 18 W/m 6,4 km/h (2 Bft) 100,00 %
08.01.2020 15:02 11,4 C 10,6 C 10,0 C 99 % 1023,6 hPa 0,0 l/m 0 min 0 min 21 W/m 16,1 km/h (3 Bft) 97,87 %
08.01.2020 15:04 11,3 C 10,6 C 10,0 C 99 % 1023,6 hPa 0,0 l/m 0 min 2 min 23 W/m 16,1 km/h (3 Bft) 94,44 %
08.01.2020 15:06 11,3 C 10,6 C 10,0 C 99 % 1023,6 hPa 0,0 l/m 0 min 2 min 23 W/m 3,2 km/h (1 Bft) 97,87 %
08.01.2020 15:08 11,3 C 10,6 C 10,0 C 99 % 1023,5 hPa 0,0 l/m 0 min 0 min 24 W/m 12,9 km/h (3 Bft) 94,44 %
08.01.2020 15:10 11,3 C 10,6 C 10,0 C 99 % 1023,5 hPa 0,0 l/m 0 min 0 min 19 W/m 6,4 km/h (2 Bft) 95,74 %
08.01.2020 15:12 11,3 C 10,0 C 10,0 C 99 % 1023,5 hPa 0,0 l/m 0 min 2 min 16 W/m 16,1 km/h (3 Bft) 95,74 %
08.01.2020 15:14 11,3 C 10,0 C 10,0 C 99 % 1023,5 hPa 0,0 l/m 0 min 0 min 16 W/m 3,2 km/h (1 Bft) 97,96 %
08.01.2020 15:16 11,3 C 10,0 C 10,0 C 99 % 1023,5 hPa 0,0 l/m 0 min 2 min 19 W/m 19,3 km/h (3 Bft) 97,87 %
08.01.2020 15:18 11,3 C 10,6 C 10,0 C 99 % 1023,5 hPa 0,0 l/m 0 min 2 min 21 W/m 3,2 km/h (1 Bft) 94,44 %
08.01.2020 15:20 11,3 C 10,6 C 10,0 C 99 % 1023,5 hPa 0,0 l/m 0 min 0 min 21 W/m 6,4 km/h (2 Bft) 97,87 %
08.01.2020 15:22 11,3 C 10,0 C 10,0 C 99 % 1023,5 hPa 0,0 l/m 0 min 0 min 16 W/m 3,2 km/h (1 Bft) 95,74 %
08.01.2020 15:24 11,3 C 10,0 C 10,0 C 99 % 1023,5 hPa 0,0 l/m 0 min 0 min 14 W/m 3,2 km/h (1 Bft) 98,18 %
08.01.2020 15:26 11,3 C 10,0 C 10,0 C 99 % 1023,6 hPa 0,0 l/m 0 min 2 min 19 W/m 12,9 km/h (3 Bft) 97,87 %
08.01.2020 15:28 11,3 C 10,6 C 10,0 C 99 % 1023,5 hPa 0,0 l/m 0 min 0 min 26 W/m 6,4 km/h (2 Bft) 100,00 %
08.01.2020 15:30 11,3 C 10,6 C 10,0 C 99 % 1023,5 hPa 0,0 l/m 0 min 0 min 22 W/m 3,2 km/h (1 Bft) 97,22 %
08.01.2020 15:32 11,3 C 10,6 C 10,0 C 99 % 1023,5 hPa 0,0 l/m 0 min 0 min 17 W/m 6,4 km/h (2 Bft) 97,87 %
08.01.2020 15:34 11,3 C 10,6 C 10,0 C 99 % 1023,5 hPa 0,0 l/m 0 min 0 min 15 W/m 12,9 km/h (3 Bft) 95,74 %
08.01.2020 15:36 11,3 C 10,6 C 10,0 C 99 % 1023,5 hPa 0,0 l/m 0 min 0 min 14 W/m 0,0 km/h (0 Bft) 95,74 %
08.01.2020 15:38 11,3 C 10,6 C 10,0 C 99 % 1023,6 hPa 0,0 l/m 0 min 0 min 13 W/m 6,4 km/h (2 Bft) 95,74 %
08.01.2020 15:40 11,3 C 10,6 C 10,0 C 99 % 1023,6 hPa 0,0 l/m 0 min 0 min 11 W/m 3,2 km/h (1 Bft) 93,62 %
08.01.2020 15:42 11,3 C 10,0 C 10,0 C 99 % 1023,5 hPa 0,0 l/m 0 min 2 min 10 W/m 0,0 km/h (0 Bft) 93,48 %
08.01.2020 15:44 11,3 C 10,0 C 10,0 C 99 % 1023,4 hPa 0,0 l/m 0 min 0 min 9 W/m 0,0 km/h (0 Bft) 95,74 %
08.01.2020 15:46 11,3 C 10,6 C 10,0 C 99 % 1023,4 hPa 0,0 l/m 0 min 0 min 11 W/m 0,0 km/h (0 Bft) 95,74 %
08.01.2020 15:48 11,3 C 10,6 C 10,0 C 99 % 1023,4 hPa 0,0 l/m 0 min 0 min 11 W/m 16,1 km/h (3 Bft) 93,62 %
08.01.2020 15:50 11,3 C 10,6 C 10,0 C 99 % 1023,4 hPa 0,0 l/m 0 min 0 min 10 W/m 0,0 km/h (0 Bft) 93,62 %
08.01.2020 15:52 11,3 C 10,6 C 10,0 C 99 % 1023,4 hPa 0,0 l/m 0 min 2 min 10 W/m 0,0 km/h (0 Bft) 95,74 %
08.01.2020 15:54 11,3 C 10,6 C 10,0 C 99 % 1023,4 hPa 0,0 l/m 0 min 0 min 11 W/m 0,0 km/h (0 Bft) 95,65 %
08.01.2020 15:56 11,3 C 10,6 C 10,0 C 99 % 1023,4 hPa 0,0 l/m 0 min 0 min 11 W/m 3,2 km/h (1 Bft) 95,74 %
08.01.2020 15:58 11,3 C 10,6 C 10,0 C 99 % 1023,4 hPa 0,0 l/m 0 min 0 min 9 W/m 3,2 km/h (1 Bft) 95,74 %
08.01.2020 16:00 11,3 C 10,6 C 10,0 C 99 % 1023,5 hPa 0,0 l/m 0 min 0 min 8 W/m 12,9 km/h (3 Bft) 97,87 %
08.01.2020 16:02 11,3 C 10,6 C 10,0 C 99 % 1023,5 hPa 0,0 l/m 0 min 0 min 7 W/m 0,0 km/h (0 Bft) 97,87 %
08.01.2020 16:04 11,3 C 10,6 C 10,0 C 99 % 1023,5 hPa 0,0 l/m 0 min 0 min 5 W/m 0,0 km/h (0 Bft) 97,87 %
08.01.2020 16:06 11,3 C 10,6 C 10,0 C 99 % 1023,6 hPa 0,0 l/m 0 min 0 min 5 W/m 0,0 km/h (0 Bft) 95,65 %
08.01.2020 16:08 11,3 C 10,6 C 10,0 C 99 % 1023,6 hPa 0,0 l/m 0 min 2 min 5 W/m 0,0 km/h (0 Bft) 100,00 %
08.01.2020 16:10 11,3 C 10,6 C 10,0 C 99 % 1023,6 hPa 0,0 l/m 0 min 0 min 7 W/m 0,0 km/h (0 Bft) 97,87 %
08.01.2020 16:12 11,3 C 10,6 C 10,0 C 99 % 1023,6 hPa 0,0 l/m 0 min 0 min 7 W/m 12,9 km/h (3 Bft) 92,00 %
08.01.2020 16:14 11,3 C 10,6 C 10,0 C 99 % 1023,5 hPa 0,2 l/m 0 min 0 min 8 W/m 0,0 km/h (0 Bft) 95,65 %
08.01.2020 16:16 11,3 C 10,6 C 10,0 C 99 % 1023,6 hPa 0,0 l/m 0 min 0 min 6 W/m 0,0 km/h (0 Bft) 100,00 %
08.01.2020 16:18 11,3 C 10,6 C 10,0 C 99 % 1023,5 hPa 0,0 l/m 0 min 0 min 5 W/m 3,2 km/h (1 Bft) 100,00 %
08.01.2020 16:20 11,3 C 10,6 C 10,0 C 99 % 1023,5 hPa 0,0 l/m 0 min 0 min 7 W/m 6,4 km/h (2 Bft) 97,87 %
08.01.2020 16:22 11,3 C 10,6 C 10,0 C 99 % 1023,5 hPa 0,0 l/m 0 min 0 min 5 W/m 0,0 km/h (0 Bft) 95,74 %
08.01.2020 16:24 11,3 C 10,6 C 10,0 C 99 % 1023,5 hPa 0,0 l/m 0 min 0 min 0 W/m 0,0 km/h (0 Bft) 97,87 %
08.01.2020 16:26 11,3 C 10,6 C 10,0 C 99 % 1023,6 hPa 0,0 l/m 0 min 0 min 0 W/m 0,0 km/h (0 Bft) 97,87 %
08.01.2020 16:28 11,3 C 10,6 C 10,0 C 99 % 1023,7 hPa 0,0 l/m 0 min 0 min 0 W/m 6,4 km/h (2 Bft) 97,83 %
08.01.2020 16:30 11,3 C 10,6 C 10,0 C 99 % 1023,7 hPa 0,0 l/m 0 min 0 min 0 W/m 0,0 km/h (0 Bft) 97,87 %
08.01.2020 16:32 11,3 C 10,6 C 10,0 C 99 % 1023,7 hPa 0,0 l/m 0 min 0 min 0 W/m 3,2 km/h (1 Bft) 95,74 %
08.01.2020 16:34 11,3 C 10,6 C 10,0 C 99 % 1023,7 hPa 0,0 l/m 0 min 0 min 0 W/m 12,9 km/h (3 Bft) 97,87 %
08.01.2020 16:36 11,3 C 10,6 C 10,0 C 99 % 1023,7 hPa 0,0 l/m 0 min 0 min 2 W/m 3,2 km/h (1 Bft) 97,87 %
08.01.2020 16:38 11,3 C 10,6 C 10,0 C 100 % 1023,7 hPa 0,0 l/m 0 min 0 min 0 W/m 3,2 km/h (1 Bft) 97,87 %
08.01.2020 16:40 11,3 C 10,6 C 10,0 C 100 % 1023,7 hPa 0,0 l/m 0 min 0 min 0 W/m 0,0 km/h (0 Bft) 97,83 %
08.01.2020 16:42 11,3 C 10,6 C 10,0 C 100 % 1023,7 hPa 0,0 l/m 0 min 0 min 0 W/m 3,2 km/h (1 Bft) 98,18 %
08.01.2020 16:44 11,3 C 10,6 C 10,0 C 100 % 1023,7 hPa 0,0 l/m 0 min 0 min 0 W/m 3,2 km/h (1 Bft) 97,87 %
08.01.2020 16:46 11,3 C 10,6 C 10,0 C 100 % 1023,7 hPa 0,0 l/m 0 min 0 min 0 W/m 6,4 km/h (2 Bft) 98,00 %
08.01.2020 16:48 11,3 C 10,6 C 10,0 C 100 % 1023,9 hPa 0,0 l/m 0 min 0 min 0 W/m 0,0 km/h (0 Bft) 93,48 %
08.01.2020 16:50 11,3 C 10,6 C 10,0 C 100 % 1023,8 hPa 0,0 l/m 0 min 0 min 0 W/m 3,2 km/h (1 Bft) 97,87 %
08.01.2020 16:52 11,3 C 10,6 C 10,0 C 100 % 1023,8 hPa 0,0 l/m 0 min 0 min 0 W/m 0,0 km/h (0 Bft) 97,22 %
08.01.2020 16:54 11,3 C 10,6 C 10,0 C 100 % 1023,8 hPa 0,0 l/m 0 min 0 min 0 W/m 19,3 km/h (3 Bft) 97,87 %
08.01.2020 16:56 11,3 C 10,6 C 10,0 C 100 % 1023,9 hPa 0,0 l/m 0 min 0 min 0 W/m 3,2 km/h (1 Bft) 97,87 %
08.01.2020 16:58 11,3 C 10,6 C 10,0 C 100 % 1023,9 hPa 0,0 l/m 0 min 0 min 0 W/m 0,0 km/h (0 Bft) 98,18 %
08.01.2020 17:00 11,3 C 10,6 C 10,0 C 100 % 1023,9 hPa 0,0 l/m 0 min 0 min 0 W/m 0,0 km/h (0 Bft) 95,92 %
08.01.2020 17:02 11,3 C 10,0 C 10,0 C 100 % 1023,9 hPa 0,0 l/m 0 min 0 min 0 W/m 3,2 km/h (1 Bft) 97,30 %
08.01.2020 17:04 11,3 C 10,6 C 10,0 C 100 % 1023,9 hPa 0,0 l/m 0 min 0 min 0 W/m 12,9 km/h (3 Bft) 95,65 %
08.01.2020 17:06 11,3 C 10,0 C 10,0 C 100 % 1024,1 hPa 0,0 l/m 0 min 0 min 0 W/m 0,0 km/h (0 Bft) 100,00 %
08.01.2020 17:08 11,3 C 10,6 C 10,0 C 100 % 1024,1 hPa 0,0 l/m 0 min 0 min 0 W/m 3,2 km/h (1 Bft) 100,00 %
08.01.2020 17:10 11,3 C 10,0 C 10,0 C 100 % 1024,2 hPa 0,0 l/m 0 min 0 min 0 W/m 3,2 km/h (1 Bft) 100,00 %
08.01.2020 17:12 11,3 C 10,6 C 10,0 C 100 % 1024,2 hPa 0,0 l/m 0 min 0 min 0 W/m 3,2 km/h (1 Bft) 97,87 %
08.01.2020 17:14 11,3 C 10,6 C 10,0 C 100 % 1024,2 hPa 0,0 l/m 0 min 2 min 0 W/m 6,4 km/h (2 Bft) 97,87 %
08.01.2020 17:16 11,3 C 10,0 C 10,0 C 100 % 1024,2 hPa 0,0 l/m 0 min 0 min 0 W/m 3,2 km/h (1 Bft) 100,00 %
08.01.2020 17:18 11,3 C 10,6 C 10,0 C 100 % 1024,2 hPa 0,0 l/m 0 min 0 min 0 W/m 0,0 km/h (0 Bft) 100,00 %
08.01.2020 17:20 11,3 C 10,6 C 10,0 C 100 % 1024,1 hPa 0,0 l/m 0 min 0 min 0 W/m 0,0 km/h (0 Bft) 100,00 %
08.01.2020 17:22 11,3 C 10,6 C 10,0 C 100 % 1024,2 hPa 0,0 l/m 0 min 2 min 0 W/m 0,0 km/h (0 Bft) 100,00 %
08.01.2020 17:24 11,3 C 10,0 C 9,4 C 100 % 1024,3 hPa 0,0 l/m 0 min 2 min 0 W/m 0,0 km/h (0 Bft) 100,00 %
08.01.2020 17:26 11,3 C 10,0 C 9,4 C 100 % 1024,3 hPa 0,0 l/m 0 min 2 min 0 W/m 0,0 km/h (0 Bft) 100,00 %
08.01.2020 17:28 11,3 C 10,0 C 9,4 C 100 % 1024,4 hPa 0,2 l/m 0 min 2 min 0 W/m 0,0 km/h (0 Bft) 100,00 %
08.01.2020 17:30 11,3 C 10,0 C 9,4 C 100 % 1024,3 hPa 0,0 l/m 0 min 2 min 0 W/m 0,0 km/h (0 Bft) 100,00 %
08.01.2020 17:32 11,3 C 10,0 C 9,4 C 100 % 1024,3 hPa 0,0 l/m 0 min 2 min 0 W/m 0,0 km/h (0 Bft) 100,00 %
08.01.2020 17:34 11,3 C 10,0 C 9,4 C 100 % 1024,3 hPa 0,0 l/m 0 min 2 min 0 W/m 3,2 km/h (1 Bft) 97,87 %
08.01.2020 17:36 11,2 C 10,0 C 9,4 C 100 % 1024,4 hPa 0,0 l/m 0 min 2 min 0 W/m 0,0 km/h (0 Bft) 100,00 %
08.01.2020 17:38 11,2 C 10,0 C 9,4 C 100 % 1024,4 hPa 0,2 l/m 0 min 2 min 0 W/m 0,0 km/h (0 Bft) 100,00 %
08.01.2020 17:40 11,2 C 10,0 C 9,4 C 100 % 1024,4 hPa 0,0 l/m 0 min 2 min 0 W/m 0,0 km/h (0 Bft) 97,22 %
08.01.2020 17:42 11,2 C 10,0 C 9,4 C 100 % 1024,4 hPa 0,2 l/m 0 min 2 min 0 W/m 0,0 km/h (0 Bft) 100,00 %
08.01.2020 17:44 11,2 C 10,0 C 10,0 C 100 % 1024,3 hPa 0,0 l/m 0 min 2 min 0 W/m 0,0 km/h (0 Bft) 100,00 %
08.01.2020 17:46 11,2 C 10,0 C 9,4 C 100 % 1024,3 hPa 0,2 l/m 0 min 2 min 0 W/m 0,0 km/h (0 Bft) 100,00 %
08.01.2020 17:48 11,2 C 10,0 C 9,4 C 100 % 1024,4 hPa 0,0 l/m 0 min 2 min 0 W/m 0,0 km/h (0 Bft) 97,87 %
08.01.2020 17:50 11,2 C 10,0 C 9,4 C 100 % 1024,4 hPa 0,2 l/m 0 min 2 min 0 W/m 0,0 km/h (0 Bft) 98,15 %
08.01.2020 17:52 11,2 C 10,0 C 9,4 C 100 % 1024,4 hPa 0,0 l/m 0 min 2 min 0 W/m 0,0 km/h (0 Bft) 100,00 %
08.01.2020 17:54 11,2 C 10,0 C 9,4 C 100 % 1024,3 hPa 0,2 l/m 0 min 2 min 0 W/m 0,0 km/h (0 Bft) 100,00 %
08.01.2020 17:56 11,2 C 10,0 C 9,4 C 100 % 1024,4 hPa 0,0 l/m 0 min 2 min 0 W/m 0,0 km/h (0 Bft) 100,00 %
08.01.2020 17:58 11,2 C 10,0 C 9,4 C 100 % 1024,3 hPa 0,2 l/m 0 min 0 min 0 W/m 0,0 km/h (0 Bft) 100,00 %
08.01.2020 18:00 11,2 C 10,0 C 9,4 C 100 % 1024,4 hPa 0,0 l/m 0 min 0 min 0 W/m 0,0 km/h (0 Bft) 97,87 %
08.01.2020 18:02 11,2 C 10,0 C 9,4 C 100 % 1024,4 hPa 0,0 l/m 0 min 0 min 0 W/m 0,0 km/h (0 Bft) 97,83 %
08.01.2020 18:04 11,2 C 10,0 C 9,4 C 100 % 1024,4 hPa 0,0 l/m 0 min 2 min 0 W/m 0,0 km/h (0 Bft) 98,00 %
08.01.2020 18:06 11,2 C 10,0 C 9,4 C 100 % 1024,5 hPa 0,0 l/m 0 min 2 min 0 W/m 0,0 km/h (0 Bft) 95,83 %
08.01.2020 18:08 11,2 C 10,0 C 9,4 C 100 % 1024,6 hPa 0,0 l/m 0 min 2 min 0 W/m 0,0 km/h (0 Bft) 96,30 %
08.01.2020 18:10 11,2 C 10,0 C 9,4 C 100 % 1024,6 hPa 0,2 l/m 0 min 2 min 0 W/m 0,0 km/h (0 Bft) 94,74 %
08.01.2020 18:12 11,2 C 10,0 C 9,4 C 100 % 1024,6 hPa 0,0 l/m 0 min 0 min 0 W/m 0,0 km/h (0 Bft) 93,48 %
08.01.2020 18:14 11,2 C 10,0 C 9,4 C 100 % 1024,6 hPa 0,0 l/m 0 min 2 min 0 W/m 0,0 km/h (0 Bft) 95,74 %
08.01.2020 18:16 11,2 C 10,0 C 9,4 C 100 % 1024,7 hPa 0,0 l/m 0 min 0 min 0 W/m 0,0 km/h (0 Bft) 93,62 %
08.01.2020 18:18 11,2 C 10,0 C 9,4 C 100 % 1024,6 hPa 0,0 l/m 0 min 0 min 0 W/m 0,0 km/h (0 Bft) 93,88 %
08.01.2020 18:20 11,2 C 10,0 C 9,4 C 100 % 1024,6 hPa 0,0 l/m 0 min 0 min 0 W/m 0,0 km/h (0 Bft) 95,74 %
08.01.2020 18:22 11,2 C 10,0 C 9,4 C 100 % 1024,5 hPa 0,0 l/m 0 min 0 min 0 W/m 0,0 km/h (0 Bft) 95,74 %
08.01.2020 18:24 11,2 C 10,0 C 9,4 C 100 % 1024,5 hPa 0,0 l/m 0 min 0 min 0 W/m 0,0 km/h (0 Bft) 95,65 %
08.01.2020 18:26 11,2 C 10,0 C 9,4 C 100 % 1024,4 hPa 0,0 l/m 0 min 0 min 0 W/m 0,0 km/h (0 Bft) 95,74 %
08.01.2020 18:28 11,2 C 10,0 C 9,4 C 100 % 1024,4 hPa 0,0 l/m 0 min 0 min 0 W/m 0,0 km/h (0 Bft) 95,74 %
08.01.2020 18:30 11,2 C 10,0 C 9,4 C 100 % 1024,5 hPa 0,0 l/m 0 min 0 min 0 W/m 0,0 km/h (0 Bft) 95,74 %
08.01.2020 18:32 11,2 C 10,0 C 9,4 C 100 % 1024,5 hPa 0,0 l/m 0 min 0 min 0 W/m 3,2 km/h (1 Bft) 93,62 %
08.01.2020 18:34 11,2 C 10,0 C 9,4 C 100 % 1024,5 hPa 0,0 l/m 0 min 0 min 0 W/m 0,0 km/h (0 Bft) 95,74 %
08.01.2020 18:36 11,2 C 10,0 C 9,4 C 100 % 1024,6 hPa 0,0 l/m 0 min 0 min 0 W/m 3,2 km/h (1 Bft) 95,65 %
08.01.2020 18:38 11,2 C 10,0 C 9,4 C 100 % 1024,6 hPa 0,0 l/m 0 min 0 min 0 W/m 3,2 km/h (1 Bft) 95,74 %
08.01.2020 18:40 11,2 C 10,0 C 9,4 C 100 % 1024,6 hPa 0,2 l/m 0 min 0 min 0 W/m 0,0 km/h (0 Bft) 95,74 %
08.01.2020 18:42 11,2 C 10,0 C 9,4 C 100 % 1024,6 hPa 0,0 l/m 0 min 2 min 0 W/m 0,0 km/h (0 Bft) 95,74 %
08.01.2020 18:44 11,2 C 10,0 C 9,4 C 100 % 1024,6 hPa 0,0 l/m 0 min 0 min 0 W/m 0,0 km/h (0 Bft) 95,74 %
08.01.2020 18:46 11,2 C 10,0 C 9,4 C 100 % 1024,6 hPa 0,0 l/m 0 min 0 min 0 W/m 0,0 km/h (0 Bft) 97,87 %
08.01.2020 18:48 11,2 C 10,0 C 9,4 C 100 % 1024,5 hPa 0,0 l/m 0 min 0 min 0 W/m 0,0 km/h (0 Bft) 97,83 %
08.01.2020 18:50 11,2 C 10,0 C 9,4 C 100 % 1024,5 hPa 0,0 l/m 0 min 0 min 0 W/m 0,0 km/h (0 Bft) 97,87 %
08.01.2020 18:52 11,2 C 10,0 C 9,4 C 100 % 1024,5 hPa 0,0 l/m 0 min 0 min 0 W/m 0,0 km/h (0 Bft) 97,87 %
08.01.2020 18:54 11,2 C 10,0 C 9,4 C 100 % 1024,4 hPa 0,0 l/m 0 min 0 min 0 W/m 0,0 km/h (0 Bft) 97,87 %
08.01.2020 18:56 11,2 C 10,0 C 9,4 C 100 % 1024,4 hPa 0,0 l/m 0 min 2 min 0 W/m 0,0 km/h (0 Bft) 97,87 %
08.01.2020 18:58 11,2 C 10,0 C 9,4 C 100 % 1024,3 hPa 0,0 l/m 0 min 0 min 0 W/m 0,0 km/h (0 Bft) 100,00 %
08.01.2020 19:00 11,2 C 10,0 C 9,4 C 100 % 1024,4 hPa 0,0 l/m 0 min 0 min 0 W/m 0,0 km/h (0 Bft) 97,83 %
08.01.2020 19:02 11,2 C 10,0 C 9,4 C 100 % 1024,4 hPa 0,0 l/m 0 min 0 min 0 W/m 0,0 km/h (0 Bft) 100,00 %
08.01.2020 19:04 11,2 C 10,0 C 9,4 C 100 % 1024,4 hPa 0,0 l/m 0 min 0 min 0 W/m 0,0 km/h (0 Bft) 100,00 %
08.01.2020 19:06 11,2 C 10,0 C 9,4 C 100 % 1024,4 hPa 0,0 l/m 0 min 0 min 0 W/m 0,0 km/h (0 Bft) 95,74 %
08.01.2020 19:08 11,2 C 10,0 C 9,4 C 100 % 1024,5 hPa 0,0 l/m 0 min 0 min 0 W/m 0,0 km/h (0 Bft) 100,00 %
08.01.2020 19:10 11,2 C 10,0 C 9,4 C 100 % 1024,4 hPa 0,0 l/m 0 min 0 min 0 W/m 0,0 km/h (0 Bft) 100,00 %
08.01.2020 19:12 11,2 C 10,0 C 9,4 C 100 % 1024,4 hPa 0,0 l/m 0 min 0 min 0 W/m 0,0 km/h (0 Bft) 97,83 %
08.01.2020 19:14 11,2 C 10,0 C 9,4 C 100 % 1024,3 hPa 0,0 l/m 0 min 0 min 0 W/m 0,0 km/h (0 Bft) 100,00 %
08.01.2020 19:16 11,2 C 10,0 C 9,4 C 100 % 1024,4 hPa 0,0 l/m 0 min 0 min 0 W/m 0,0 km/h (0 Bft) 100,00 %
08.01.2020 19:18 11,2 C 10,0 C 9,4 C 100 % 1024,4 hPa 0,0 l/m 0 min 0 min 0 W/m 0,0 km/h (0 Bft) 100,00 %
08.01.2020 19:20 11,2 C 10,0 C 9,4 C 100 % 1024,4 hPa 0,0 l/m 0 min 0 min 0 W/m 0,0 km/h (0 Bft) 97,87 %
08.01.2020 19:22 11,2 C 10,0 C 9,4 C 100 % 1024,4 hPa 0,0 l/m 0 min 0 min 0 W/m 3,2 km/h (1 Bft) 100,00 %
08.01.2020 19:24 11,2 C 10,0 C 9,4 C 100 % 1024,4 hPa 0,0 l/m 0 min 0 min 0 W/m 0,0 km/h (0 Bft) 97,87 %
08.01.2020 19:26 11,2 C 10,0 C 9,4 C 100 % 1024,3 hPa 0,0 l/m 0 min 0 min 0 W/m 0,0 km/h (0 Bft) 97,87 %
08.01.2020 19:28 11,2 C 10,0 C 9,4 C 100 % 1024,4 hPa 0,0 l/m 0 min 0 min 0 W/m 0,0 km/h (0 Bft) 95,74 %
08.01.2020 19:30 11,2 C 10,0 C 9,4 C 100 % 1024,4 hPa 0,0 l/m 0 min 0 min 0 W/m 0,0 km/h (0 Bft) 97,87 %
08.01.2020 19:32 11,2 C 10,0 C 9,4 C 100 % 1024,4 hPa 0,0 l/m 0 min 0 min 0 W/m 0,0 km/h (0 Bft) 97,87 %
08.01.2020 19:34 11,2 C 10,0 C 9,4 C 100 % 1024,4 hPa 0,0 l/m 0 min 0 min 0 W/m 0,0 km/h (0 Bft) 97,83 %
08.01.2020 19:36 11,2 C 10,0 C 9,4 C 100 % 1024,4 hPa 0,0 l/m 0 min 0 min 0 W/m 3,2 km/h (1 Bft) 97,87 %
08.01.2020 19:38 11,2 C 10,0 C 9,4 C 100 % 1024,3 hPa 0,0 l/m 0 min 0 min 0 W/m 0,0 km/h (0 Bft) 100,00 %
08.01.2020 19:40 11,2 C 10,0 C 9,4 C 100 % 1024,3 hPa 0,0 l/m 0 min 0 min 0 W/m 0,0 km/h (0 Bft) 97,87 %
08.01.2020 19:42 11,2 C 10,0 C 9,4 C 100 % 1024,3 hPa 0,0 l/m 0 min 0 min 0 W/m 0,0 km/h (0 Bft) 97,87 %
08.01.2020 19:44 11,2 C 10,0 C 9,4 C 100 % 1024,3 hPa 0,0 l/m 0 min 0 min 0 W/m 0,0 km/h (0 Bft) 97,87 %
08.01.2020 19:46 11,2 C 10,0 C 9,4 C 100 % 1024,3 hPa 0,0 l/m 0 min 0 min 0 W/m 0,0 km/h (0 Bft) 95,65 %
08.01.2020 19:48 11,2 C 10,0 C 9,4 C 100 % 1024,3 hPa 0,0 l/m 0 min 0 min 0 W/m 0,0 km/h (0 Bft) 95,74 %
08.01.2020 19:50 11,2 C 10,0 C 9,4 C 100 % 1024,3 hPa 0,0 l/m 0 min 0 min 0 W/m 0,0 km/h (0 Bft) 97,87 %
08.01.2020 19:52 11,2 C 10,0 C 9,4 C 100 % 1024,3 hPa 0,0 l/m 0 min 2 min 0 W/m 0,0 km/h (0 Bft) 97,87 %
08.01.2020 19:54 11,2 C 10,0 C 9,4 C 100 % 1024,3 hPa 0,0 l/m 0 min 0 min 0 W/m 0,0 km/h (0 Bft) 97,87 %
08.01.2020 19:56 11,2 C 10,0 C 9,4 C 100 % 1024,3 hPa 0,0 l/m 0 min 0 min 0 W/m 0,0 km/h (0 Bft) 97,87 %
08.01.2020 19:58 11,2 C 10,0 C 9,4 C 100 % 1024,3 hPa 0,0 l/m 0 min 0 min 0 W/m 0,0 km/h (0 Bft) 97,83 %
08.01.2020 20:00 11,2 C 10,0 C 9,4 C 100 % 1024,2 hPa 0,0 l/m 0 min 0 min 0 W/m 0,0 km/h (0 Bft) 97,87 %
08.01.2020 20:02 11,2 C 10,0 C 9,4 C 100 % 1024,3 hPa 0,0 l/m 0 min 2 min 0 W/m 0,0 km/h (0 Bft) 97,87 %
08.01.2020 20:04 11,2 C 10,0 C 9,4 C 100 % 1024,3 hPa 0,0 l/m 0 min 2 min 0 W/m 0,0 km/h (0 Bft) 97,87 %
08.01.2020 20:06 11,2 C 10,0 C 9,4 C 100 % 1024,3 hPa 0,0 l/m 0 min 2 min 0 W/m 0,0 km/h (0 Bft) 97,87 %
08.01.2020 20:08 11,2 C 10,0 C 9,4 C 100 % 1024,2 hPa 0,0 l/m 0 min 2 min 0 W/m 0,0 km/h (0 Bft) 97,87 %
08.01.2020 20:10 11,2 C 10,0 C 9,4 C 100 % 1024,2 hPa 0,0 l/m 0 min 2 min 0 W/m 0,0 km/h (0 Bft) 97,83 %
08.01.2020 20:12 11,2 C 10,0 C 9,4 C 100 % 1024,2 hPa 0,0 l/m 0 min 2 min 0 W/m 0,0 km/h (0 Bft) 97,87 %
08.01.2020 20:14 11,2 C 10,0 C 9,4 C 100 % 1024,2 hPa 0,0 l/m 0 min 0 min 0 W/m 3,2 km/h (1 Bft) 95,74 %
08.01.2020 20:16 11,2 C 10,0 C 9,4 C 100 % 1024,1 hPa 0,0 l/m 0 min 0 min 0 W/m 0,0 km/h (0 Bft) 97,87 %
08.01.2020 20:18 11,2 C 10,0 C 10,0 C 100 % 1024,2 hPa 0,0 l/m 0 min 0 min 0 W/m 3,2 km/h (1 Bft) 97,87 %
08.01.2020 20:20 11,2 C 10,0 C 9,4 C 100 % 1024,2 hPa 0,0 l/m 0 min 0 min 0 W/m 0,0 km/h (0 Bft) 100,00 %
08.01.2020 20:22 11,2 C 10,0 C 10,0 C 100 % 1024,2 hPa 0,0 l/m 0 min 0 min 0 W/m 0,0 km/h (0 Bft) 97,83 %
08.01.2020 20:24 11,2 C 10,0 C 9,4 C 100 % 1024,2 hPa 0,0 l/m 0 min 0 min 0 W/m 0,0 km/h (0 Bft) 100,00 %
08.01.2020 20:26 11,2 C 10,0 C 10,0 C 100 % 1024,1 hPa 0,0 l/m 0 min 0 min 0 W/m 0,0 km/h (0 Bft) 100,00 %
08.01.2020 20:28 11,2 C 10,0 C 9,4 C 100 % 1024,1 hPa 0,0 l/m 0 min 0 min 0 W/m 0,0 km/h (0 Bft) 100,00 %
08.01.2020 20:30 11,2 C 10,0 C 9,4 C 100 % 1024,1 hPa 0,0 l/m 0 min 2 min 0 W/m 0,0 km/h (0 Bft) 100,00 %
08.01.2020 20:32 11,2 C 10,0 C 9,4 C 100 % 1024,1 hPa 0,0 l/m 0 min 2 min 0 W/m 0,0 km/h (0 Bft) 100,00 %
08.01.2020 20:34 11,2 C 10,0 C 9,4 C 100 % 1024,1 hPa 0,0 l/m 0 min 0 min 0 W/m 0,0 km/h (0 Bft) 97,83 %
08.01.2020 20:36 11,2 C 10,0 C 9,4 C 100 % 1024,1 hPa 0,0 l/m 0 min 0 min 0 W/m 0,0 km/h (0 Bft) 97,87 %
08.01.2020 20:38 11,2 C 10,0 C 9,4 C 100 % 1024,0 hPa 0,0 l/m 0 min 0 min 0 W/m 0,0 km/h (0 Bft) 97,87 %
08.01.2020 20:40 11,2 C 10,0 C 9,4 C 100 % 1024,1 hPa 0,0 l/m 0 min 0 min 0 W/m 0,0 km/h (0 Bft) 97,87 %
08.01.2020 20:42 11,2 C 10,0 C 9,4 C 100 % 1024,1 hPa 0,0 l/m 0 min 0 min 0 W/m 0,0 km/h (0 Bft) 97,87 %
08.01.2020 20:44 11,2 C 10,0 C 9,4 C 100 % 1024,0 hPa 0,0 l/m 0 min 0 min 0 W/m 0,0 km/h (0 Bft) 97,87 %
08.01.2020 20:46 11,2 C 10,0 C 9,4 C 100 % 1024,1 hPa 0,0 l/m 0 min 0 min 0 W/m 0,0 km/h (0 Bft) 95,74 %
08.01.2020 20:48 11,2 C 10,0 C 9,4 C 100 % 1024,1 hPa 0,0 l/m 0 min 0 min 0 W/m 3,2 km/h (1 Bft) 95,74 %
08.01.2020 20:50 11,2 C 10,0 C 9,4 C 100 % 1024,0 hPa 0,0 l/m 0 min 0 min 0 W/m 0,0 km/h (0 Bft) 93,62 %
08.01.2020 20:52 11,1 C 10,0 C 9,4 C 100 % 1024,0 hPa 0,0 l/m 0 min 0 min 0 W/m 0,0 km/h (0 Bft) 93,62 %
08.01.2020 20:54 11,1 C 10,0 C 9,4 C 100 % 1024,0 hPa 0,0 l/m 0 min 0 min 0 W/m 0,0 km/h (0 Bft) 97,87 %
08.01.2020 20:56 11,1 C 10,0 C 9,4 C 100 % 1023,9 hPa 0,0 l/m 0 min 0 min 0 W/m 0,0 km/h (0 Bft) 95,65 %
08.01.2020 20:58 11,1 C 10,0 C 9,4 C 100 % 1023,8 hPa 0,0 l/m 0 min 0 min 0 W/m 0,0 km/h (0 Bft) 97,87 %
08.01.2020 21:00 11,1 C 10,0 C 9,4 C 100 % 1023,8 hPa 0,0 l/m 0 min 0 min 0 W/m 0,0 km/h (0 Bft) 97,87 %
08.01.2020 21:02 11,1 C 10,0 C 9,4 C 100 % 1023,9 hPa 0,0 l/m 0 min 0 min 0 W/m 0,0 km/h (0 Bft) 95,74 %
08.01.2020 21:04 11,1 C 10,0 C 9,4 C 100 % 1023,8 hPa 0,0 l/m 0 min 2 min 0 W/m 0,0 km/h (0 Bft) 95,74 %
08.01.2020 21:06 11,1 C 10,0 C 9,4 C 100 % 1023,9 hPa 0,0 l/m 0 min 0 min 0 W/m 0,0 km/h (0 Bft) 95,74 %
08.01.2020 21:08 11,1 C 10,0 C 9,4 C 100 % 1023,9 hPa 0,0 l/m 0 min 0 min 0 W/m 0,0 km/h (0 Bft) 93,48 %
08.01.2020 21:10 11,1 C 10,0 C 9,4 C 100 % 1023,9 hPa 0,0 l/m 0 min 0 min 0 W/m 0,0 km/h (0 Bft) 95,74 %
08.01.2020 21:12 11,1 C 10,0 C 9,4 C 100 % 1023,9 hPa 0,0 l/m 0 min 0 min 0 W/m 0,0 km/h (0 Bft) 95,74 %
08.01.2020 21:14 11,1 C 10,0 C 9,4 C 100 % 1023,9 hPa 0,0 l/m 0 min 0 min 0 W/m 0,0 km/h (0 Bft) 93,62 %
08.01.2020 21:16 11,1 C 10,0 C 9,4 C 100 % 1023,8 hPa 0,0 l/m 0 min 0 min 0 W/m 0,0 km/h (0 Bft) 95,74 %
08.01.2020 21:18 11,1 C 10,0 C 9,4 C 100 % 1023,8 hPa 0,0 l/m 0 min 0 min 0 W/m 0,0 km/h (0 Bft) 95,74 %
08.01.2020 21:20 11,1 C 10,0 C 9,4 C 100 % 1023,8 hPa 0,0 l/m 0 min 0 min 0 W/m 0,0 km/h (0 Bft) 97,83 %
08.01.2020 21:22 11,1 C 10,0 C 9,4 C 100 % 1023,8 hPa 0,0 l/m 0 min 0 min 0 W/m 0,0 km/h (0 Bft) 97,87 %
08.01.2020 21:24 11,1 C 10,0 C 9,4 C 100 % 1023,8 hPa 0,0 l/m 0 min 0 min 0 W/m 0,0 km/h (0 Bft) 97,87 %
08.01.2020 21:26 11,0 C 10,0 C 9,4 C 100 % 1023,8 hPa 0,0 l/m 0 min 0 min 0 W/m 0,0 km/h (0 Bft) 95,74 %
08.01.2020 21:28 11,0 C 10,0 C 9,4 C 100 % 1023,8 hPa 0,0 l/m 0 min 0 min 0 W/m 0,0 km/h (0 Bft) 97,87 %
08.01.2020 21:30 11,0 C 10,0 C 9,4 C 100 % 1023,8 hPa 0,0 l/m 0 min 0 min 0 W/m 0,0 km/h (0 Bft) 97,83 %
08.01.2020 21:32 11,0 C 10,0 C 9,4 C 100 % 1023,8 hPa 0,0 l/m 0 min 0 min 0 W/m 0,0 km/h (0 Bft) 97,87 %
08.01.2020 21:34 11,0 C 10,0 C 9,4 C 100 % 1023,8 hPa 0,0 l/m 0 min 2 min 0 W/m 0,0 km/h (0 Bft) 97,87 %
08.01.2020 21:36 11,0 C 10,0 C 9,4 C 100 % 1023,8 hPa 0,0 l/m 0 min 2 min 0 W/m 0,0 km/h (0 Bft) 97,87 %
08.01.2020 21:38 10,9 C 10,0 C 9,4 C 100 % 1023,8 hPa 0,0 l/m 0 min 2 min 0 W/m 0,0 km/h (0 Bft) 97,87 %
08.01.2020 21:40 10,9 C 10,0 C 9,4 C 100 % 1023,8 hPa 0,0 l/m 0 min 2 min 0 W/m 0,0 km/h (0 Bft) 97,87 %
08.01.2020 21:42 10,9 C 10,0 C 9,4 C 100 % 1023,8 hPa 0,2 l/m 0 min 2 min 0 W/m 0,0 km/h (0 Bft) 97,83 %
08.01.2020 21:44 10,9 C 10,0 C 9,4 C 100 % 1023,8 hPa 0,0 l/m 0 min 2 min 0 W/m 0,0 km/h (0 Bft) 97,87 %
08.01.2020 21:46 10,9 C 10,0 C 9,4 C 100 % 1023,8 hPa 0,0 l/m 0 min 2 min 0 W/m 0,0 km/h (0 Bft) 95,74 %
08.01.2020 21:48 10,9 C 10,0 C 9,4 C 100 % 1023,8 hPa 0,0 l/m 0 min 2 min 0 W/m 0,0 km/h (0 Bft) 97,87 %
08.01.2020 21:50 10,9 C 10,0 C 9,4 C 100 % 1023,8 hPa 0,0 l/m 0 min 2 min 0 W/m 0,0 km/h (0 Bft) 95,74 %
08.01.2020 21:52 10,9 C 10,0 C 9,4 C 100 % 1023,8 hPa 0,0 l/m 0 min 2 min 0 W/m 0,0 km/h (0 Bft) 97,87 %
08.01.2020 21:54 10,9 C 10,0 C 9,4 C 100 % 1023,7 hPa 0,0 l/m 0 min 0 min 0 W/m 0,0 km/h (0 Bft) 97,83 %
08.01.2020 21:56 10,9 C 10,0 C 9,4 C 100 % 1023,7 hPa 0,0 l/m 0 min 0 min 0 W/m 0,0 km/h (0 Bft) 100,00 %
08.01.2020 21:58 10,9 C 10,0 C 9,4 C 100 % 1023,7 hPa 0,0 l/m 0 min 0 min 0 W/m 0,0 km/h (0 Bft) 100,00 %
08.01.2020 22:00 10,9 C 10,0 C 9,4 C 100 % 1023,7 hPa 0,0 l/m 0 min 0 min 0 W/m 3,2 km/h (1 Bft) 100,00 %
08.01.2020 22:02 10,9 C 10,0 C 9,4 C 100 % 1023,5 hPa 0,0 l/m 0 min 0 min 0 W/m 0,0 km/h (0 Bft) 100,00 %
08.01.2020 22:04 10,9 C 10,0 C 9,4 C 100 % 1023,6 hPa 0,0 l/m 0 min 0 min 0 W/m 12,9 km/h (3 Bft) 97,87 %
08.01.2020 22:06 10,9 C 10,0 C 9,4 C 100 % 1023,6 hPa 0,0 l/m 0 min 0 min 0 W/m 0,0 km/h (0 Bft) 100,00 %
08.01.2020 22:08 10,9 C 10,0 C 9,4 C 100 % 1023,5 hPa 0,0 l/m 0 min 0 min 0 W/m 0,0 km/h (0 Bft) 100,00 %
08.01.2020 22:10 10,9 C 10,0 C 9,4 C 100 % 1023,6 hPa 0,0 l/m 0 min 0 min 0 W/m 3,2 km/h (1 Bft) 100,00 %
08.01.2020 22:12 10,9 C 10,0 C 9,4 C 100 % 1023,6 hPa 0,0 l/m 0 min 0 min 0 W/m 3,2 km/h (1 Bft) 100,00 %
08.01.2020 22:14 10,9 C 10,0 C 9,4 C 100 % 1023,6 hPa 0,0 l/m 0 min 0 min 0 W/m 3,2 km/h (1 Bft) 100,00 %
08.01.2020 22:16 10,9 C 10,0 C 9,4 C 100 % 1023,5 hPa 0,0 l/m 0 min 0 min 0 W/m 3,2 km/h (1 Bft) 100,00 %
08.01.2020 22:18 10,8 C 10,0 C 9,4 C 100 % 1023,6 hPa 0,0 l/m 0 min 2 min 0 W/m 3,2 km/h (1 Bft) 100,00 %
08.01.2020 22:20 10,8 C 10,0 C 9,4 C 100 % 1023,5 hPa 0,0 l/m 0 min 0 min 0 W/m 3,2 km/h (1 Bft) 97,87 %
08.01.2020 22:22 10,8 C 10,0 C 9,4 C 100 % 1023,5 hPa 0,0 l/m 0 min 2 min 0 W/m 0,0 km/h (0 Bft) 97,87 %
08.01.2020 22:24 10,8 C 10,0 C 9,4 C 100 % 1023,5 hPa 0,0 l/m 0 min 2 min 0 W/m 0,0 km/h (0 Bft) 97,87 %
08.01.2020 22:26 10,8 C 10,0 C 9,4 C 100 % 1023,5 hPa 0,0 l/m 0 min 2 min 0 W/m 3,2 km/h (1 Bft) 97,87 %
08.01.2020 22:28 10,8 C 10,0 C 9,4 C 100 % 1023,6 hPa 0,0 l/m 0 min 2 min 0 W/m 0,0 km/h (0 Bft) 100,00 %
08.01.2020 22:30 10,8 C 10,0 C 9,4 C 100 % 1023,5 hPa 0,0 l/m 0 min 2 min 0 W/m 3,2 km/h (1 Bft) 97,83 %
08.01.2020 22:32 10,8 C 10,0 C 9,4 C 100 % 1023,5 hPa 0,0 l/m 0 min 2 min 0 W/m 3,2 km/h (1 Bft) 95,74 %
08.01.2020 22:34 10,8 C 10,0 C 9,4 C 100 % 1023,5 hPa 0,2 l/m 0 min 2 min 0 W/m 6,4 km/h (2 Bft) 95,74 %
08.01.2020 22:36 10,8 C 10,0 C 9,4 C 100 % 1023,4 hPa 0,0 l/m 0 min 2 min 0 W/m 3,2 km/h (1 Bft) 97,87 %
08.01.2020 22:38 10,8 C 10,0 C 9,4 C 100 % 1023,4 hPa 0,0 l/m 0 min 2 min 0 W/m 3,2 km/h (1 Bft) 97,87 %
08.01.2020 22:40 10,8 C 10,0 C 9,4 C 100 % 1023,4 hPa 0,0 l/m 0 min 2 min 0 W/m 6,4 km/h (2 Bft) 97,83 %
08.01.2020 22:42 10,8 C 10,0 C 9,4 C 100 % 1023,3 hPa 0,0 l/m 0 min 2 min 0 W/m 6,4 km/h (2 Bft) 97,87 %
08.01.2020 22:44 10,8 C 10,0 C 9,4 C 100 % 1023,4 hPa 0,0 l/m 0 min 2 min 0 W/m 6,4 km/h (2 Bft) 97,87 %
08.01.2020 22:46 10,8 C 10,0 C 9,4 C 100 % 1023,3 hPa 0,0 l/m 0 min 2 min 0 W/m 6,4 km/h (2 Bft) 98,11 %
08.01.2020 22:48 10,8 C 10,0 C 9,4 C 100 % 1023,3 hPa 0,2 l/m 0 min 2 min 0 W/m 0,0 km/h (0 Bft) 97,56 %
08.01.2020 22:50 10,8 C 10,0 C 9,4 C 100 % 1023,3 hPa 0,0 l/m 0 min 2 min 0 W/m 3,2 km/h (1 Bft) 97,87 %
08.01.2020 22:52 10,8 C 10,0 C 9,4 C 100 % 1023,3 hPa 0,0 l/m 0 min 2 min 0 W/m 6,4 km/h (2 Bft) 97,83 %
08.01.2020 22:54 10,7 C 10,0 C 9,4 C 100 % 1023,3 hPa 0,2 l/m 0 min 2 min 0 W/m 0,0 km/h (0 Bft) 97,87 %
08.01.2020 22:56 10,7 C 10,0 C 9,4 C 100 % 1023,3 hPa 0,0 l/m 0 min 2 min 0 W/m 6,4 km/h (2 Bft) 97,87 %
08.01.2020 22:58 10,7 C 10,0 C 9,4 C 100 % 1023,2 hPa 0,0 l/m 0 min 2 min 0 W/m 0,0 km/h (0 Bft) 95,74 %
08.01.2020 23:00 10,7 C 9,4 C 9,4 C 100 % 1023,2 hPa 0,0 l/m 0 min 2 min 0 W/m 6,4 km/h (2 Bft) 97,87 %
08.01.2020 23:02 10,7 C 9,4 C 9,4 C 100 % 1023,2 hPa 0,0 l/m 0 min 2 min 0 W/m 3,2 km/h (1 Bft) 95,74 %
08.01.2020 23:04 10,7 C 9,4 C 9,4 C 100 % 1023,2 hPa 0,0 l/m 0 min 2 min 0 W/m 3,2 km/h (1 Bft) 95,65 %
08.01.2020 23:06 10,7 C 9,4 C 9,4 C 100 % 1023,2 hPa 0,0 l/m 0 min 2 min 0 W/m 0,0 km/h (0 Bft) 93,62 %
08.01.2020 23:08 10,7 C 9,4 C 9,4 C 100 % 1023,2 hPa 0,2 l/m 0 min 2 min 0 W/m 6,4 km/h (2 Bft) 93,62 %
08.01.2020 23:10 10,7 C 9,4 C 9,4 C 100 % 1023,2 hPa 0,0 l/m 0 min 2 min 0 W/m 3,2 km/h (1 Bft) 91,49 %
08.01.2020 23:12 10,7 C 9,4 C 9,4 C 100 % 1023,1 hPa 0,0 l/m 0 min 2 min 0 W/m 0,0 km/h (0 Bft) 95,74 %
08.01.2020 23:14 10,7 C 9,4 C 9,4 C 100 % 1023,1 hPa 0,0 l/m 0 min 2 min 0 W/m 0,0 km/h (0 Bft) 93,62 %
08.01.2020 23:16 10,7 C 9,4 C 8,9 C 100 % 1023,2 hPa 0,2 l/m 0 min 2 min 0 W/m 3,2 km/h (1 Bft) 95,65 %
08.01.2020 23:18 10,7 C 9,4 C 8,9 C 100 % 1023,1 hPa 0,0 l/m 0 min 2 min 0 W/m 3,2 km/h (1 Bft) 95,74 %
08.01.2020 23:20 10,6 C 9,4 C 8,9 C 100 % 1023,2 hPa 0,0 l/m 0 min 2 min 0 W/m 3,2 km/h (1 Bft) 95,74 %
08.01.2020 23:22 10,6 C 9,4 C 9,4 C 100 % 1023,2 hPa 0,0 l/m 0 min 2 min 0 W/m 3,2 km/h (1 Bft) 95,74 %
08.01.2020 23:24 10,6 C 9,4 C 8,9 C 100 % 1023,2 hPa 0,0 l/m 0 min 2 min 0 W/m 0,0 km/h (0 Bft) 97,87 %
08.01.2020 23:26 10,6 C 9,4 C 8,9 C 100 % 1023,2 hPa 0,0 l/m 0 min 2 min 0 W/m 0,0 km/h (0 Bft) 93,62 %
08.01.2020 23:28 10,6 C 9,4 C 8,9 C 100 % 1023,2 hPa 0,0 l/m 0 min 2 min 0 W/m 0,0 km/h (0 Bft) 97,83 %
08.01.2020 23:30 10,6 C 9,4 C 8,9 C 100 % 1023,2 hPa 0,0 l/m 0 min 2 min 0 W/m 0,0 km/h (0 Bft) 97,87 %
08.01.2020 23:32 10,6 C 9,4 C 8,9 C 100 % 1023,1 hPa 0,0 l/m 0 min 2 min 0 W/m 0,0 km/h (0 Bft) 97,87 %
08.01.2020 23:34 10,6 C 9,4 C 8,9 C 100 % 1023,1 hPa 0,0 l/m 0 min 2 min 0 W/m 0,0 km/h (0 Bft) 97,87 %
08.01.2020 23:36 10,6 C 9,4 C 8,9 C 100 % 1023,1 hPa 0,0 l/m 0 min 2 min 0 W/m 0,0 km/h (0 Bft) 97,87 %
08.01.2020 23:38 10,6 C 9,4 C 8,9 C 100 % 1023,1 hPa 0,0 l/m 0 min 2 min 0 W/m 0,0 km/h (0 Bft) 97,87 %
08.01.2020 23:40 10,6 C 9,4 C 8,9 C 100 % 1023,1 hPa 0,0 l/m 0 min 2 min 0 W/m 0,0 km/h (0 Bft) 97,83 %
08.01.2020 23:42 10,6 C 9,4 C 8,9 C 100 % 1023,1 hPa 0,2 l/m 0 min 2 min 0 W/m 0,0 km/h (0 Bft) 97,87 %
08.01.2020 23:44 10,6 C 9,4 C 8,9 C 100 % 1023,1 hPa 0,0 l/m 0 min 2 min 0 W/m 0,0 km/h (0 Bft) 95,74 %
08.01.2020 23:46 10,6 C 9,4 C 8,9 C 100 % 1023,0 hPa 0,0 l/m 0 min 2 min 0 W/m 0,0 km/h (0 Bft) 100,00 %
08.01.2020 23:48 10,6 C 9,4 C 8,9 C 100 % 1023,0 hPa 0,0 l/m 0 min 2 min 0 W/m 3,2 km/h (1 Bft) 100,00 %
08.01.2020 23:50 10,6 C 9,4 C 8,9 C 100 % 1023,0 hPa 0,2 l/m 0 min 2 min 0 W/m 0,0 km/h (0 Bft) 97,87 %
08.01.2020 23:52 10,6 C 9,4 C 8,9 C 100 % 1023,0 hPa 0,0 l/m 0 min 2 min 0 W/m 0,0 km/h (0 Bft) 93,48 %
08.01.2020 23:54 10,6 C 9,4 C 8,9 C 100 % 1022,9 hPa 0,0 l/m 0 min 2 min 0 W/m 0,0 km/h (0 Bft) 97,87 %
08.01.2020 23:56 10,5 C 9,4 C 8,9 C 100 % 1022,9 hPa 0,0 l/m 0 min 2 min 0 W/m 0,0 km/h (0 Bft) 100,00 %
08.01.2020 23:58 10,5 C 9,4 C 8,9 C 100 % 1022,9 hPa 0,0 l/m 0 min 2 min 0 W/m 0,0 km/h (0 Bft) 97,87 %
_ Min-Zeit 00:00 00:00 00:00 02:02 06:40 - - - - 00:00 11:20
Minimum _ 6,1 C 5,6 C 5,0 C 87 % 1022,8 hPa - - - - 0,0 km/h (0 Bft) 68,09 %
_ Max-Zeit 13:26 12:54 12:58 16:38 00:08 16:14 00:00 05:38 12:04 02:36 00:12
Maximum _ 11,5 C 11,1 C 10,6 C 100 % 1025,8 hPa 0,2 l/m 0 min 2 min 133 W/m 35,4 km/h
O-SO (5 Bft)
100,00 %
Durchschnitt _ 9,5 C 8,7 C 8,1 C 96 % 1023,8 hPa #3,6 l/m #0 min. #3:50 h 31 W/m 4,6 km/h (1 Bft) 97,25 %
© 2020 W. Hausmann